Time,TemperatureF,DewpointF,PressureIn,WindDirection,WindDirectionDegrees,WindSpeedMPH,WindSpeedGustMPH,Humidity,HourlyPrecipIn,Conditions,Clouds,dailyrainin,SolarRadiationWatts/m^2,SoftwareType,DateUTC
2013-01-18 00:00:00,31.0,31.0,30.33,South,187,0.0,1.0,100,0.00,,---,0.00,0.00,VWS V14.01,2013-01-18 08:00:00,
2013-01-18 00:03:00,30.9,30.9,30.33,South,189,0.0,1.0,100,0.00,,---,0.00,0.00,VWS V14.01,2013-01-18 08:03:00,
2013-01-18 00:05:00,30.9,30.9,30.32,South,186,0.0,3.0,100,0.00,,---,0.00,0.00,VWS V14.01,2013-01-18 08:05:00,
2013-01-18 00:08:00,30.8,30.8,30.33,SSW,205,0.0,0.0,100,0.00,,---,0.00,0.00,VWS V14.01,2013-01-18 08:08:00,
2013-01-18 00:10:00,30.8,30.8,30.32,SSW,203,0.0,3.0,100,0.00,,---,0.00,0.00,VWS V14.01,2013-01-18 08:10:00,
2013-01-18 00:13:00,30.8,30.8,30.33,SSW,201,0.0,0.0,100,0.00,,---,0.00,0.00,VWS V14.01,2013-01-18 08:13:00,
2013-01-18 00:15:00,30.7,30.7,30.33,SSW,203,0.0,1.0,100,0.00,,---,0.00,0.00,VWS V14.01,2013-01-18 08:15:00,
2013-01-18 00:18:00,30.7,30.7,30.33,SSW,204,0.0,0.0,100,0.00,,---,0.00,0.00,VWS V14.01,2013-01-18 08:18:00,
2013-01-18 00:20:00,30.7,30.7,30.33,North,360,0.0,0.0,100,0.00,,---,0.00,0.00,VWS V14.01,2013-01-18 08:20:00,
2013-01-18 00:23:00,30.6,30.6,30.33,North,360,0.0,0.0,100,0.00,,---,0.00,0.00,VWS V14.01,2013-01-18 08:23:00,
2013-01-18 00:25:00,30.6,30.6,30.33,SSW,205,0.0,1.0,100,0.00,,---,0.00,0.00,VWS V14.01,2013-01-18 08:25:00,
2013-01-18 00:28:00,30.6,30.6,30.33,SSW,204,1.0,2.0,100,0.00,,---,0.00,0.00,VWS V14.01,2013-01-18 08:28:00,
2013-01-18 00:30:00,30.6,30.6,30.33,North,360,2.0,2.0,100,0.00,,---,0.00,0.00,VWS V14.01,2013-01-18 08:30:00,
2013-01-18 00:33:00,30.5,30.5,30.32,SSW,202,1.0,1.0,100,0.00,,---,0.00,0.00,VWS V14.01,2013-01-18 08:33:00,
2013-01-18 00:35:00,30.5,30.5,30.32,North,360,1.0,2.0,100,0.00,,---,0.00,0.00,VWS V14.01,2013-01-18 08:35:00,
2013-01-18 00:38:00,30.4,30.4,30.32,SSW,204,0.0,0.0,100,0.00,,---,0.00,0.00,VWS V14.01,2013-01-18 08:38:00,
2013-01-18 00:40:00,30.4,30.4,30.32,SSW,204,0.0,2.0,100,0.00,,---,0.00,0.00,VWS V14.01,2013-01-18 08:40:00,
2013-01-18 00:43:00,30.3,30.3,30.32,SSW,201,0.0,1.0,100,0.00,,---,0.00,0.00,VWS V14.01,2013-01-18 08:43:00,
2013-01-18 00:45:00,30.3,30.3,30.32,SSW,202,1.0,3.0,100,0.00,,---,0.00,0.00,VWS V14.01,2013-01-18 08:45:00,
2013-01-18 00:48:00,30.3,30.3,30.32,SSW,204,0.0,0.0,100,0.00,,---,0.00,0.00,VWS V14.01,2013-01-18 08:48:00,
2013-01-18 00:50:00,30.3,30.3,30.32,North,360,0.0,1.0,100,0.00,,---,0.00,0.00,VWS V14.01,2013-01-18 08:50:00,
2013-01-18 00:53:00,30.2,30.2,30.32,SSW,201,0.0,0.0,100,0.00,,---,0.00,0.00,VWS V14.01,2013-01-18 08:53:00,
2013-01-18 00:55:00,30.2,30.2,30.32,North,360,0.0,0.0,100,0.00,,---,0.00,0.00,VWS V14.01,2013-01-18 08:55:00,
2013-01-18 00:58:00,30.1,30.1,30.32,SSW,205,0.0,0.0,100,0.00,,---,0.00,0.00,VWS V14.01,2013-01-18 08:58:00,
2013-01-18 01:00:00,30.1,30.1,30.32,SSW,205,0.0,0.0,100,0.00,,---,0.00,0.00,VWS V14.01,2013-01-18 09:00:00,
2013-01-18 01:03:00,30.1,30.1,30.32,North,360,0.0,0.0,100,0.00,,---,0.00,0.00,VWS V14.01,2013-01-18 09:03:00,
2013-01-18 01:05:00,30.2,30.2,30.32,SSW,205,0.0,0.0,100,0.00,,---,0.00,0.00,VWS V14.01,2013-01-18 09:05:00,
2013-01-18 01:08:00,30.1,30.1,30.32,North,360,0.0,1.0,100,0.00,,---,0.00,0.00,VWS V14.01,2013-01-18 09:08:00,
2013-01-18 01:10:00,30.1,30.1,30.32,SSW,205,1.0,1.0,100,0.00,,---,0.00,0.00,VWS V14.01,2013-01-18 09:10:00,
2013-01-18 01:13:00,30.0,30.0,30.32,North,360,0.0,0.0,100,0.00,,---,0.00,0.00,VWS V14.01,2013-01-18 09:13:00,
2013-01-18 01:15:00,30.1,30.1,30.32,SSW,202,0.0,1.0,100,0.00,,---,0.00,0.00,VWS V14.01,2013-01-18 09:15:00,
2013-01-18 01:18:00,30.0,30.0,30.32,SSW,202,0.0,0.0,100,0.00,,---,0.00,0.00,VWS V14.01,2013-01-18 09:18:00,
2013-01-18 01:20:00,30.1,30.1,30.32,SSW,202,0.0,0.0,100,0.00,,---,0.00,0.00,VWS V14.01,2013-01-18 09:20:00,
2013-01-18 01:23:00,29.9,29.9,30.32,North,360,0.0,0.0,100,0.00,,---,0.00,0.00,VWS V14.01,2013-01-18 09:23:00,
2013-01-18 01:25:00,30.0,30.0,30.32,North,360,0.0,0.0,100,0.00,,---,0.00,0.00,VWS V14.01,2013-01-18 09:25:00,
2013-01-18 01:28:00,29.9,29.9,30.32,SSW,203,0.0,0.0,100,0.00,,---,0.00,0.00,VWS V14.01,2013-01-18 09:28:00,
2013-01-18 01:30:00,29.9,29.9,30.32,North,360,0.0,0.0,100,0.00,,---,0.00,0.00,VWS V14.01,2013-01-18 09:30:00,
2013-01-18 01:33:00,29.9,29.9,30.32,SSW,205,0.0,0.0,100,0.00,,---,0.00,0.00,VWS V14.01,2013-01-18 09:33:00,
2013-01-18 01:35:00,29.9,29.9,30.32,North,360,0.0,0.0,100,0.00,,---,0.00,0.00,VWS V14.01,2013-01-18 09:35:00,
2013-01-18 01:38:00,29.9,29.9,30.32,SSW,205,0.0,0.0,100,0.00,,---,0.00,0.00,VWS V14.01,2013-01-18 09:38:00,
2013-01-18 01:40:00,29.9,29.9,30.32,SSW,204,0.0,0.0,100,0.00,,---,0.00,0.00,VWS V14.01,2013-01-18 09:40:00,
2013-01-18 01:43:00,29.9,29.9,30.32,SSW,201,0.0,0.0,100,0.00,,---,0.00,0.00,VWS V14.01,2013-01-18 09:43:00,
2013-01-18 01:45:00,29.9,29.9,30.32,SSW,201,0.0,0.0,100,0.00,,---,0.00,0.00,VWS V14.01,2013-01-18 09:45:00,
2013-01-18 01:48:00,29.9,29.9,30.32,SSW,205,0.0,0.0,100,0.00,,---,0.00,0.00,VWS V14.01,2013-01-18 09:48:00,
2013-01-18 01:50:00,29.9,29.9,30.32,SSW,204,0.0,0.0,100,0.00,,---,0.00,0.00,VWS V14.01,2013-01-18 09:50:00,
2013-01-18 01:53:00,29.9,29.9,30.32,SSW,204,0.0,0.0,100,0.00,,---,0.00,0.00,VWS V14.01,2013-01-18 09:53:00,
2013-01-18 01:55:00,29.9,29.9,30.32,SSW,205,0.0,0.0,100,0.00,,---,0.00,0.00,VWS V14.01,2013-01-18 09:55:00,
2013-01-18 01:58:00,29.9,29.9,30.32,SE,131,0.0,0.0,100,0.00,,---,0.00,0.00,VWS V14.01,2013-01-18 09:58:00,
2013-01-18 02:00:00,29.9,29.9,30.32,SE,131,0.0,1.0,100,0.00,,---,0.00,0.00,VWS V14.01,2013-01-18 10:00:00,
2013-01-18 02:03:00,29.9,29.9,30.32,South,179,3.0,3.0,100,0.00,,---,0.00,0.00,VWS V14.01,2013-01-18 10:03:00,
2013-01-18 02:05:00,29.9,29.9,30.32,South,181,2.0,2.0,100,0.00,,---,0.00,0.00,VWS V14.01,2013-01-18 10:05:00,
2013-01-18 02:08:00,29.9,29.9,30.32,South,178,0.0,1.0,100,0.00,,---,0.00,0.00,VWS V14.01,2013-01-18 10:08:00,
2013-01-18 02:10:00,29.9,29.9,30.32,South,180,0.0,3.0,100,0.00,,---,0.00,0.00,VWS V14.01,2013-01-18 10:10:00,
2013-01-18 02:13:00,29.9,29.9,30.32,South,178,1.0,2.0,100,0.00,,---,0.00,0.00,VWS V14.01,2013-01-18 10:13:00,
2013-01-18 02:15:00,29.8,29.8,30.32,South,180,1.0,2.0,100,0.00,,---,0.00,0.00,VWS V14.01,2013-01-18 10:15:00,
2013-01-18 02:18:00,29.8,29.8,30.32,South,181,0.0,0.0,100,0.00,,---,0.00,0.00,VWS V14.01,2013-01-18 10:18:00,
2013-01-18 02:20:00,29.8,29.8,30.32,South,182,0.0,2.0,100,0.00,,---,0.00,0.00,VWS V14.01,2013-01-18 10:20:00,
2013-01-18 02:23:00,29.8,29.8,30.32,South,179,0.0,0.0,100,0.00,,---,0.00,0.00,VWS V14.01,2013-01-18 10:23:00,
2013-01-18 02:25:00,29.8,29.8,30.32,South,179,0.0,0.0,100,0.00,,---,0.00,0.00,VWS V14.01,2013-01-18 10:25:00,
2013-01-18 02:28:00,29.8,29.8,30.32,South,180,0.0,0.0,100,0.00,,---,0.00,0.00,VWS V14.01,2013-01-18 10:28:00,
2013-01-18 02:30:00,29.8,29.8,30.32,South,180,0.0,0.0,100,0.00,,---,0.00,0.00,VWS V14.01,2013-01-18 10:30:00,
2013-01-18 02:33:00,29.8,29.8,30.32,East,98,1.0,2.0,100,0.00,,---,0.00,0.00,VWS V14.01,2013-01-18 10:33:00,
2013-01-18 02:35:00,29.8,29.8,30.32,South,179,2.0,2.0,100,0.00,,---,0.00,0.00,VWS V14.01,2013-01-18 10:35:00,
2013-01-18 02:38:00,29.7,29.7,30.32,East,96,0.0,0.0,100,0.00,,---,0.00,0.00,VWS V14.01,2013-01-18 10:38:00,
2013-01-18 02:40:00,29.7,29.7,30.32,East,98,0.0,2.0,100,0.00,,---,0.00,0.00,VWS V14.01,2013-01-18 10:40:00,
2013-01-18 02:43:00,29.7,29.7,30.32,East,99,0.0,0.0,100,0.00,,---,0.00,0.00,VWS V14.01,2013-01-18 10:43:00,
2013-01-18 02:45:00,29.7,29.7,30.32,East,97,0.0,0.0,100,0.00,,---,0.00,0.00,VWS V14.01,2013-01-18 10:45:00,
2013-01-18 02:48:00,29.7,29.7,30.32,East,99,0.0,0.0,100,0.00,,---,0.00,0.00,VWS V14.01,2013-01-18 10:48:00,
2013-01-18 02:50:00,29.7,29.7,30.32,East,98,0.0,0.0,100,0.00,,---,0.00,0.00,VWS V14.01,2013-01-18 10:50:00,
2013-01-18 02:53:00,29.7,29.7,30.32,East,99,0.0,0.0,100,0.00,,---,0.00,0.00,VWS V14.01,2013-01-18 10:53:00,
2013-01-18 02:55:00,29.7,29.7,30.32,East,99,0.0,0.0,100,0.00,,---,0.00,0.00,VWS V14.01,2013-01-18 10:55:00,
2013-01-18 02:58:00,29.8,29.8,30.31,East,99,0.0,0.0,100,0.00,,---,0.00,0.00,VWS V14.01,2013-01-18 10:58:00,
2013-01-18 03:00:00,29.8,29.8,30.31,East,97,0.0,1.0,100,0.00,,---,0.00,0.00,VWS V14.01,2013-01-18 11:00:00,
2013-01-18 03:03:00,29.8,29.8,30.32,East,99,0.0,0.0,100,0.00,,---,0.00,0.00,VWS V14.01,2013-01-18 11:03:00,
2013-01-18 03:05:00,29.8,29.8,30.32,East,97,0.0,0.0,100,0.00,,---,0.00,0.00,VWS V14.01,2013-01-18 11:05:00,
2013-01-18 03:08:00,29.8,29.8,30.32,East,97,0.0,0.0,100,0.00,,---,0.00,0.00,VWS V14.01,2013-01-18 11:08:00,
2013-01-18 03:10:00,29.8,29.8,30.32,East,98,0.0,0.0,100,0.00,,---,0.00,0.00,VWS V14.01,2013-01-18 11:10:00,
2013-01-18 03:13:00,29.8,29.8,30.32,East,98,0.0,0.0,100,0.00,,---,0.00,0.00,VWS V14.01,2013-01-18 11:13:00,
2013-01-18 03:15:00,29.8,29.8,30.32,East,96,0.0,1.0,100,0.00,,---,0.00,0.00,VWS V14.01,2013-01-18 11:15:00,
2013-01-18 03:18:00,29.8,29.8,30.31,East,96,0.0,0.0,100,0.00,,---,0.00,0.00,VWS V14.01,2013-01-18 11:18:00,
2013-01-18 03:20:00,29.8,29.8,30.31,East,97,0.0,0.0,100,0.00,,---,0.00,0.00,VWS V14.01,2013-01-18 11:20:00,
2013-01-18 03:23:00,29.7,29.7,30.31,East,97,0.0,0.0,100,0.00,,---,0.00,0.00,VWS V14.01,2013-01-18 11:23:00,
2013-01-18 03:25:00,29.8,29.8,30.31,East,98,0.0,1.0,100,0.00,,---,0.00,0.00,VWS V14.01,2013-01-18 11:25:00,
2013-01-18 03:28:00,29.8,29.8,30.31,East,98,0.0,0.0,100,0.00,,---,0.00,0.00,VWS V14.01,2013-01-18 11:28:00,
2013-01-18 03:30:00,29.8,29.8,30.31,East,97,0.0,0.0,100,0.00,,---,0.00,0.00,VWS V14.01,2013-01-18 11:30:00,
2013-01-18 03:33:00,29.8,29.8,30.31,East,98,0.0,0.0,100,0.00,,---,0.00,0.00,VWS V14.01,2013-01-18 11:33:00,
2013-01-18 03:35:00,29.8,29.8,30.31,East,98,0.0,0.0,100,0.00,,---,0.00,0.00,VWS V14.01,2013-01-18 11:35:00,
2013-01-18 03:38:00,29.8,29.8,30.32,East,98,0.0,0.0,100,0.00,,---,0.00,0.00,VWS V14.01,2013-01-18 11:38:00,
2013-01-18 03:40:00,29.8,29.8,30.32,East,96,0.0,0.0,100,0.00,,---,0.00,0.00,VWS V14.01,2013-01-18 11:40:00,
2013-01-18 03:43:00,29.7,29.7,30.31,East,96,0.0,0.0,100,0.00,,---,0.00,0.00,VWS V14.01,2013-01-18 11:43:00,
2013-01-18 03:45:00,29.8,29.8,30.31,East,96,0.0,0.0,100,0.00,,---,0.00,0.00,VWS V14.01,2013-01-18 11:45:00,
2013-01-18 03:48:00,29.8,29.8,30.31,East,98,0.0,0.0,100,0.00,,---,0.00,0.00,VWS V14.01,2013-01-18 11:48:00,
2013-01-18 03:50:00,29.8,29.8,30.31,East,98,0.0,0.0,100,0.00,,---,0.00,0.00,VWS V14.01,2013-01-18 11:50:00,
2013-01-18 03:53:00,29.8,29.8,30.31,East,98,0.0,0.0,100,0.00,,---,0.00,0.00,VWS V14.01,2013-01-18 11:53:00,
2013-01-18 03:55:00,29.8,29.8,30.31,East,98,0.0,0.0,100,0.00,,---,0.00,0.00,VWS V14.01,2013-01-18 11:55:00,
2013-01-18 03:58:00,29.8,29.8,30.30,East,98,0.0,0.0,100,0.00,,---,0.00,0.00,VWS V14.01,2013-01-18 11:58:00,
2013-01-18 04:00:00,29.8,29.8,30.30,East,98,0.0,1.0,100,0.00,,---,0.00,0.00,VWS V14.01,2013-01-18 12:00:00,
2013-01-18 04:03:00,29.8,29.8,30.30,East,98,0.0,0.0,100,0.00,,---,0.00,0.00,VWS V14.01,2013-01-18 12:03:00,
2013-01-18 04:05:00,29.8,29.8,30.30,East,96,0.0,1.0,100,0.00,,---,0.00,0.00,VWS V14.01,2013-01-18 12:05:00,
2013-01-18 04:08:00,29.8,29.8,30.30,ENE,65,0.0,0.0,100,0.00,,---,0.00,0.00,VWS V14.01,2013-01-18 12:08:00,
2013-01-18 04:10:00,29.7,29.7,30.30,ENE,65,0.0,2.0,100,0.00,,---,0.00,0.00,VWS V14.01,2013-01-18 12:10:00,
2013-01-18 04:13:00,29.7,29.7,30.30,ENE,67,0.0,0.0,100,0.00,,---,0.00,0.00,VWS V14.01,2013-01-18 12:13:00,
2013-01-18 04:15:00,29.7,29.7,30.30,ENE,67,0.0,0.0,100,0.00,,---,0.00,0.00,VWS V14.01,2013-01-18 12:15:00,
2013-01-18 04:18:00,29.7,29.7,30.30,ENE,66,0.0,0.0,100,0.00,,---,0.00,0.00,VWS V14.01,2013-01-18 12:18:00,
2013-01-18 04:20:00,29.7,29.7,30.30,ENE,67,0.0,0.0,100,0.00,,---,0.00,0.00,VWS V14.01,2013-01-18 12:20:00,
2013-01-18 04:23:00,29.7,29.7,30.30,ENE,66,0.0,0.0,100,0.00,,---,0.00,0.00,VWS V14.01,2013-01-18 12:23:00,
2013-01-18 04:25:00,29.7,29.7,30.30,ENE,65,0.0,0.0,100,0.00,,---,0.00,0.00,VWS V14.01,2013-01-18 12:25:00,
2013-01-18 04:28:00,29.6,29.6,30.30,ENE,66,0.0,0.0,100,0.00,,---,0.00,0.00,VWS V14.01,2013-01-18 12:28:00,
2013-01-18 04:30:00,29.7,29.7,30.30,ENE,65,0.0,0.0,100,0.00,,---,0.00,0.00,VWS V14.01,2013-01-18 12:30:00,
2013-01-18 04:33:00,29.6,29.6,30.30,ENE,67,0.0,1.0,100,0.00,,---,0.00,0.00,VWS V14.01,2013-01-18 12:33:00,
2013-01-18 04:35:00,29.6,29.6,30.30,ENE,66,1.0,1.0,100,0.00,,---,0.00,0.00,VWS V14.01,2013-01-18 12:35:00,
2013-01-18 04:38:00,29.6,29.6,30.30,ENE,66,0.0,0.0,100,0.00,,---,0.00,0.00,VWS V14.01,2013-01-18 12:38:00,
2013-01-18 04:40:00,29.6,29.6,30.30,ENE,65,0.0,1.0,100,0.00,,---,0.00,0.00,VWS V14.01,2013-01-18 12:40:00,
2013-01-18 04:43:00,29.6,29.6,30.30,ENE,72,0.0,0.0,100,0.00,,---,0.00,0.00,VWS V14.01,2013-01-18 12:43:00,
2013-01-18 04:45:00,29.6,29.6,30.30,ENE,72,0.0,2.0,100,0.00,,---,0.00,0.00,VWS V14.01,2013-01-18 12:45:00,
2013-01-18 04:48:00,29.6,29.6,30.30,ENE,74,0.0,0.0,100,0.00,,---,0.00,0.00,VWS V14.01,2013-01-18 12:48:00,
2013-01-18 04:50:00,29.6,29.6,30.30,ENE,74,0.0,0.0,100,0.00,,---,0.00,0.00,VWS V14.01,2013-01-18 12:50:00,
2013-01-18 04:53:00,29.6,29.6,30.29,ENE,72,0.0,0.0,100,0.00,,---,0.00,0.00,VWS V14.01,2013-01-18 12:53:00,
2013-01-18 04:55:00,29.6,29.6,30.30,ENE,72,0.0,0.0,100,0.00,,---,0.00,0.00,VWS V14.01,2013-01-18 12:55:00,
2013-01-18 04:58:00,29.6,29.6,30.29,ENE,72,0.0,0.0,100,0.00,,---,0.00,0.00,VWS V14.01,2013-01-18 12:58:00,
2013-01-18 05:00:00,29.6,29.6,30.29,ENE,74,0.0,0.0,100,0.00,,---,0.00,0.00,VWS V14.01,2013-01-18 13:00:00,
2013-01-18 05:03:00,29.6,29.6,30.30,ENE,74,0.0,0.0,100,0.00,,---,0.00,0.00,VWS V14.01,2013-01-18 13:03:00,
2013-01-18 05:05:00,29.6,29.6,30.30,ENE,74,0.0,0.0,100,0.00,,---,0.00,0.00,VWS V14.01,2013-01-18 13:05:00,
2013-01-18 05:08:00,29.6,29.6,30.29,ENE,74,0.0,0.0,100,0.00,,---,0.00,0.00,VWS V14.01,2013-01-18 13:08:00,
2013-01-18 05:10:00,29.6,29.6,30.29,ENE,73,0.0,0.0,100,0.00,,---,0.00,0.00,VWS V14.01,2013-01-18 13:10:00,
2013-01-18 05:13:00,29.6,29.6,30.29,ENE,72,0.0,0.0,100,0.00,,---,0.00,0.00,VWS V14.01,2013-01-18 13:13:00,
2013-01-18 05:15:00,29.6,29.6,30.29,ENE,74,0.0,0.0,100,0.00,,---,0.00,0.00,VWS V14.01,2013-01-18 13:15:00,
2013-01-18 05:18:00,29.6,29.6,30.29,ENE,74,0.0,0.0,100,0.00,,---,0.00,0.00,VWS V14.01,2013-01-18 13:18:00,
2013-01-18 05:20:00,29.6,29.6,30.29,ENE,72,0.0,0.0,100,0.00,,---,0.00,0.00,VWS V14.01,2013-01-18 13:20:00,
2013-01-18 05:23:00,29.6,29.6,30.29,ENE,74,0.0,0.0,100,0.00,,---,0.00,0.00,VWS V14.01,2013-01-18 13:23:00,
2013-01-18 05:25:00,29.6,29.6,30.29,ENE,74,0.0,0.0,100,0.00,,---,0.00,0.00,VWS V14.01,2013-01-18 13:25:00,
2013-01-18 05:28:00,29.6,29.6,30.29,ENE,74,0.0,0.0,100,0.00,,---,0.00,0.00,VWS V14.01,2013-01-18 13:28:00,
2013-01-18 05:30:00,29.6,29.6,30.29,ENE,72,0.0,0.0,100,0.00,,---,0.00,0.00,VWS V14.01,2013-01-18 13:30:00,
2013-01-18 05:33:00,29.6,29.6,30.29,ENE,73,0.0,1.0,100,0.00,,---,0.00,0.00,VWS V14.01,2013-01-18 13:33:00,
2013-01-18 05:35:00,29.6,29.6,30.29,ENE,72,1.0,1.0,100,0.00,,---,0.00,0.00,VWS V14.01,2013-01-18 13:35:00,
2013-01-18 05:38:00,29.6,29.6,30.30,NE,56,1.0,2.0,100,0.00,,---,0.00,0.00,VWS V14.01,2013-01-18 13:38:00,
2013-01-18 05:40:00,29.6,29.6,30.30,NE,56,0.0,2.0,100,0.00,,---,0.00,0.00,VWS V14.01,2013-01-18 13:40:00,
2013-01-18 05:43:00,29.5,29.5,30.30,NE,36,2.0,2.0,100,0.00,,---,0.00,0.00,VWS V14.01,2013-01-18 13:43:00,
2013-01-18 05:45:00,29.6,29.6,30.30,NE,39,2.0,3.0,100,0.00,,---,0.00,0.00,VWS V14.01,2013-01-18 13:45:00,
2013-01-18 05:48:00,29.5,29.5,30.30,NE,37,0.0,1.0,100,0.00,,---,0.00,0.00,VWS V14.01,2013-01-18 13:48:00,
2013-01-18 05:50:00,29.5,29.5,30.30,NE,36,1.0,2.0,100,0.00,,---,0.00,0.00,VWS V14.01,2013-01-18 13:50:00,
2013-01-18 05:53:00,29.5,29.5,30.30,NE,37,1.0,2.0,100,0.00,,---,0.00,0.00,VWS V14.01,2013-01-18 13:53:00,
2013-01-18 05:55:00,29.5,29.5,30.30,NE,37,1.0,2.0,100,0.00,,---,0.00,0.00,VWS V14.01,2013-01-18 13:55:00,
2013-01-18 05:58:00,29.4,29.4,30.30,NE,36,0.0,1.0,100,0.00,,---,0.00,0.00,VWS V14.01,2013-01-18 13:58:00,
2013-01-18 06:00:00,29.4,29.4,30.30,NE,37,0.0,2.0,100,0.00,,---,0.00,0.00,VWS V14.01,2013-01-18 14:00:00,
2013-01-18 06:03:00,29.4,29.4,30.30,NE,36,1.0,1.0,100,0.00,,---,0.00,0.00,VWS V14.01,2013-01-18 14:03:00,
2013-01-18 06:05:00,29.4,29.4,30.30,NE,36,1.0,1.0,100,0.00,,---,0.00,0.00,VWS V14.01,2013-01-18 14:05:00,
2013-01-18 06:08:00,29.3,29.3,30.30,NE,36,0.0,0.0,100,0.00,,---,0.00,0.00,VWS V14.01,2013-01-18 14:08:00,
2013-01-18 06:10:00,29.4,29.4,30.30,NE,36,0.0,1.0,100,0.00,,---,0.00,0.00,VWS V14.01,2013-01-18 14:10:00,
2013-01-18 06:13:00,29.3,29.3,30.30,NE,37,0.0,0.0,100,0.00,,---,0.00,0.00,VWS V14.01,2013-01-18 14:13:00,
2013-01-18 06:15:00,29.3,29.3,30.30,NE,37,0.0,1.0,100,0.00,,---,0.00,0.00,VWS V14.01,2013-01-18 14:15:00,
2013-01-18 06:18:00,29.2,29.2,30.30,NE,36,0.0,0.0,100,0.00,,---,0.00,0.00,VWS V14.01,2013-01-18 14:18:00,
2013-01-18 06:20:00,29.3,29.3,30.30,NE,37,0.0,0.0,100,0.00,,---,0.00,0.00,VWS V14.01,2013-01-18 14:20:00,
2013-01-18 06:23:00,29.2,29.2,30.30,NE,37,0.0,0.0,100,0.00,,---,0.00,0.00,VWS V14.01,2013-01-18 14:23:00,
2013-01-18 06:25:00,29.2,29.2,30.30,NE,37,0.0,0.0,100,0.00,,---,0.00,0.00,VWS V14.01,2013-01-18 14:25:00,
2013-01-18 06:28:00,29.2,29.2,30.30,NE,36,0.0,1.0,100,0.00,,---,0.00,0.00,VWS V14.01,2013-01-18 14:28:00,
2013-01-18 06:30:00,29.2,29.2,30.30,NE,37,1.0,1.0,100,0.00,,---,0.00,0.00,VWS V14.01,2013-01-18 14:30:00,
2013-01-18 06:33:00,29.1,29.1,30.30,NE,37,0.0,0.0,100,0.00,,---,0.00,0.00,VWS V14.01,2013-01-18 14:33:00,
2013-01-18 06:35:00,29.1,29.1,30.30,NE,37,0.0,1.0,100,0.00,,---,0.00,0.00,VWS V14.01,2013-01-18 14:35:00,
2013-01-18 06:38:00,29.1,29.1,30.30,NE,53,0.0,0.0,100,0.00,,---,0.00,0.00,VWS V14.01,2013-01-18 14:38:00,
2013-01-18 06:40:00,29.0,29.0,30.30,NE,53,0.0,1.0,100,0.00,,---,0.00,0.00,VWS V14.01,2013-01-18 14:40:00,
2013-01-18 06:43:00,29.0,29.0,30.30,ENE,71,1.0,1.0,100,0.00,,---,0.00,0.00,VWS V14.01,2013-01-18 14:43:00,
2013-01-18 06:45:00,29.2,29.2,30.30,ENE,67,0.0,0.0,100,0.00,,---,0.00,0.00,VWS V14.01,2013-01-18 14:45:00,
2013-01-18 06:48:00,29.0,29.0,30.30,ENE,71,0.0,1.0,100,0.00,,---,0.00,0.00,VWS V14.01,2013-01-18 14:48:00,
2013-01-18 06:50:00,29.1,29.1,30.30,ENE,69,1.0,1.0,100,0.00,,---,0.00,0.00,VWS V14.01,2013-01-18 14:50:00,
2013-01-18 06:53:00,29.0,29.0,30.30,ENE,71,0.0,0.0,100,0.00,,---,0.00,0.00,VWS V14.01,2013-01-18 14:53:00,
2013-01-18 06:55:00,29.0,29.0,30.30,ENE,71,0.0,1.0,100,0.00,,---,0.00,0.00,VWS V14.01,2013-01-18 14:55:00,
2013-01-18 06:58:00,29.0,29.0,30.30,ENE,69,0.0,0.0,100,0.00,,---,0.00,0.00,VWS V14.01,2013-01-18 14:58:00,
2013-01-18 07:00:00,29.0,29.0,30.30,ENE,69,0.0,0.0,100,0.00,,---,0.00,0.00,VWS V14.01,2013-01-18 15:00:00,
2013-01-18 07:03:00,29.0,29.0,30.30,ENE,69,0.0,0.0,100,0.00,,---,0.00,0.00,VWS V14.01,2013-01-18 15:03:00,
2013-01-18 07:05:00,29.0,29.0,30.30,ENE,69,0.0,0.0,100,0.00,,---,0.00,0.00,VWS V14.01,2013-01-18 15:05:00,
2013-01-18 07:08:00,29.0,29.0,30.30,ENE,71,0.0,0.0,100,0.00,,---,0.00,0.00,VWS V14.01,2013-01-18 15:08:00,
2013-01-18 07:10:00,29.0,29.0,30.30,ENE,71,0.0,0.0,100,0.00,,---,0.00,0.00,VWS V14.01,2013-01-18 15:10:00,
2013-01-18 07:13:00,29.1,29.1,30.30,ENE,71,0.0,0.0,100,0.00,,---,0.00,0.00,VWS V14.01,2013-01-18 15:13:00,
2013-01-18 07:15:00,29.0,29.0,30.30,ENE,69,0.0,0.0,100,0.00,,---,0.00,0.00,VWS V14.01,2013-01-18 15:15:00,
2013-01-18 07:18:00,29.1,29.1,30.30,ENE,69,0.0,0.0,100,0.00,,---,0.00,0.00,VWS V14.01,2013-01-18 15:18:00,
2013-01-18 07:20:00,29.1,29.1,30.29,ENE,69,0.0,0.0,100,0.00,,---,0.00,0.00,VWS V14.01,2013-01-18 15:20:00,
2013-01-18 07:23:00,29.0,29.0,30.30,ENE,71,0.0,0.0,100,0.00,,---,0.00,0.00,VWS V14.01,2013-01-18 15:23:00,
2013-01-18 07:25:00,29.1,29.1,30.30,ENE,70,0.0,0.0,100,0.00,,---,0.00,0.00,VWS V14.01,2013-01-18 15:25:00,
2013-01-18 07:28:00,29.1,29.1,30.30,ENE,71,0.0,0.0,100,0.00,,---,0.00,0.00,VWS V14.01,2013-01-18 15:28:00,
2013-01-18 07:30:00,29.8,29.8,30.31,ENE,68,0.0,0.0,100,0.00,,---,0.00,14.00,VWS V14.01,2013-01-18 15:30:00,
2013-01-18 07:33:00,29.1,29.1,30.30,ENE,68,0.0,0.0,100,0.00,,---,0.00,0.00,VWS V14.01,2013-01-18 15:33:00,
2013-01-18 07:35:00,29.1,29.1,30.30,ENE,67,0.0,1.0,100,0.00,,---,0.00,0.00,VWS V14.01,2013-01-18 15:35:00,
2013-01-18 07:38:00,29.2,29.2,30.30,ENE,67,0.0,0.0,100,0.00,,---,0.00,0.00,VWS V14.01,2013-01-18 15:38:00,
2013-01-18 07:40:00,29.2,29.2,30.30,ENE,68,0.0,0.0,100,0.00,,---,0.00,0.00,VWS V14.01,2013-01-18 15:40:00,
2013-01-18 07:43:00,29.2,29.2,30.30,ENE,66,0.0,0.0,100,0.00,,---,0.00,0.00,VWS V14.01,2013-01-18 15:43:00,
2013-01-18 07:45:00,29.2,29.2,30.30,ENE,67,0.0,0.0,100,0.00,,---,0.00,0.00,VWS V14.01,2013-01-18 15:45:00,
2013-01-18 07:48:00,29.3,29.3,30.30,ENE,68,0.0,1.0,100,0.00,,---,0.00,0.00,VWS V14.01,2013-01-18 15:48:00,
2013-01-18 07:50:00,29.3,29.3,30.30,ENE,66,0.0,0.0,100,0.00,,---,0.00,0.00,VWS V14.01,2013-01-18 15:50:00,
2013-01-18 07:53:00,29.4,29.4,30.30,ENE,67,0.0,0.0,100,0.00,,---,0.00,0.00,VWS V14.01,2013-01-18 15:53:00,
2013-01-18 07:55:00,29.4,29.4,30.30,ENE,67,0.0,1.0,100,0.00,,---,0.00,0.00,VWS V14.01,2013-01-18 15:55:00,
2013-01-18 07:58:00,29.4,29.4,30.30,ENE,66,0.0,0.0,100,0.00,,---,0.00,0.00,VWS V14.01,2013-01-18 15:58:00,
2013-01-18 08:00:00,29.4,29.4,30.30,ENE,68,0.0,0.0,100,0.00,,---,0.00,0.00,VWS V14.01,2013-01-18 16:00:00,
2013-01-18 08:03:00,29.5,29.5,30.30,ENE,68,0.0,0.0,100,0.00,,---,0.00,5.00,VWS V14.01,2013-01-18 16:03:00,
2013-01-18 08:05:00,29.5,29.5,30.30,ENE,66,0.0,0.0,100,0.00,,---,0.00,5.00,VWS V14.01,2013-01-18 16:05:00,
2013-01-18 08:08:00,29.6,29.6,30.30,ENE,66,0.0,0.0,100,0.00,,---,0.00,5.00,VWS V14.01,2013-01-18 16:08:00,
2013-01-18 08:10:00,29.6,29.6,30.30,ENE,68,0.0,0.0,100,0.00,,---,0.00,5.00,VWS V14.01,2013-01-18 16:10:00,
2013-01-18 08:13:00,29.7,29.7,30.30,ENE,66,0.0,0.0,100,0.00,,---,0.00,9.00,VWS V14.01,2013-01-18 16:13:00,
2013-01-18 08:15:00,29.7,29.7,30.30,ENE,67,0.0,0.0,100,0.00,,---,0.00,7.00,VWS V14.01,2013-01-18 16:15:00,
2013-01-18 08:18:00,29.7,29.7,30.30,ENE,66,0.0,0.0,100,0.00,,---,0.00,11.00,VWS V14.01,2013-01-18 16:18:00,
2013-01-18 08:20:00,29.7,29.7,30.30,ENE,66,0.0,0.0,100,0.00,,---,0.00,11.00,VWS V14.01,2013-01-18 16:20:00,
2013-01-18 08:23:00,29.8,29.8,30.31,ENE,66,0.0,0.0,100,0.00,,---,0.00,12.00,VWS V14.01,2013-01-18 16:23:00,
2013-01-18 08:25:00,29.8,29.8,30.31,ENE,66,0.0,0.0,100,0.00,,---,0.00,12.00,VWS V14.01,2013-01-18 16:25:00,
2013-01-18 08:28:00,29.8,29.8,30.31,ENE,67,0.0,1.0,100,0.00,,---,0.00,14.00,VWS V14.01,2013-01-18 16:28:00,
2013-01-18 08:30:00,29.8,29.8,30.31,ENE,68,0.0,0.0,100,0.00,,---,0.00,14.00,VWS V14.01,2013-01-18 16:30:00,
2013-01-18 08:33:00,29.9,29.9,30.31,SSW,198,1.0,2.0,100,0.00,,---,0.00,23.00,VWS V14.01,2013-01-18 16:33:00,
2013-01-18 08:35:00,29.8,29.8,30.31,ENE,67,2.0,2.0,100,0.00,,---,0.00,21.00,VWS V14.01,2013-01-18 16:35:00,
2013-01-18 08:38:00,29.8,29.8,30.31,SSW,196,1.0,1.0,100,0.00,,---,0.00,18.00,VWS V14.01,2013-01-18 16:38:00,
2013-01-18 08:40:00,29.8,29.8,30.31,SSW,196,1.0,2.0,100,0.00,,---,0.00,16.00,VWS V14.01,2013-01-18 16:40:00,
2013-01-18 08:43:00,29.9,29.9,30.31,SSW,197,2.0,3.0,100,0.00,,---,0.00,23.00,VWS V14.01,2013-01-18 16:43:00,
2013-01-18 08:45:00,29.9,29.9,30.31,North,360,2.0,2.0,100,0.00,,---,0.00,18.00,VWS V14.01,2013-01-18 16:45:00,
2013-01-18 08:48:00,29.8,29.8,30.32,SSW,207,1.0,1.0,100,0.00,,---,0.00,37.00,VWS V14.01,2013-01-18 16:48:00,
2013-01-18 08:50:00,29.8,29.8,30.32,SSW,207,0.0,3.0,100,0.00,,---,0.00,32.00,VWS V14.01,2013-01-18 16:50:00,
2013-01-18 08:53:00,29.7,29.7,30.32,SW,230,1.0,2.0,100,0.00,,---,0.00,37.00,VWS V14.01,2013-01-18 16:53:00,
2013-01-18 08:55:00,29.7,29.7,30.32,SW,229,0.0,3.0,100,0.00,,---,0.00,37.00,VWS V14.01,2013-01-18 16:55:00,
2013-01-18 08:58:00,29.7,29.7,30.32,SW,228,0.0,0.0,100,0.00,,---,0.00,40.00,VWS V14.01,2013-01-18 16:58:00,
2013-01-18 09:00:00,29.7,29.7,30.32,SW,229,0.0,2.0,100,0.00,,---,0.00,40.00,VWS V14.01,2013-01-18 17:00:00,
2013-01-18 09:03:00,29.7,29.7,30.32,North,360,0.0,1.0,100,0.00,,---,0.00,42.00,VWS V14.01,2013-01-18 17:03:00,
2013-01-18 09:05:00,29.7,29.7,30.32,SW,229,0.0,0.0,100,0.00,,---,0.00,42.00,VWS V14.01,2013-01-18 17:05:00,
2013-01-18 09:08:00,29.7,29.7,30.33,NW,304,0.0,0.0,100,0.00,,---,0.00,47.00,VWS V14.01,2013-01-18 17:08:00,
2013-01-18 09:10:00,29.7,29.7,30.32,NW,304,0.0,2.0,100,0.00,,---,0.00,47.00,VWS V14.01,2013-01-18 17:10:00,
2013-01-18 09:13:00,29.6,29.6,30.33,NE,36,1.0,3.0,100,0.00,,---,0.00,44.00,VWS V14.01,2013-01-18 17:13:00,
2013-01-18 09:15:00,29.6,29.6,30.33,North,360,1.0,2.0,100,0.00,,---,0.00,42.00,VWS V14.01,2013-01-18 17:15:00,
2013-01-18 09:18:00,29.6,29.6,30.33,NE,36,0.0,0.0,100,0.00,,---,0.00,51.00,VWS V14.01,2013-01-18 17:18:00,
2013-01-18 09:20:00,29.6,29.6,30.33,NE,36,0.0,3.0,100,0.00,,---,0.00,53.00,VWS V14.01,2013-01-18 17:20:00,
2013-01-18 09:23:00,29.7,29.7,30.33,NE,36,0.0,0.0,100,0.00,,---,0.00,62.00,VWS V14.01,2013-01-18 17:23:00,
2013-01-18 09:25:00,29.7,29.7,30.33,NE,36,0.0,0.0,100,0.00,,---,0.00,62.00,VWS V14.01,2013-01-18 17:25:00,
2013-01-18 09:28:00,29.8,29.8,30.33,NE,35,0.0,0.0,100,0.00,,---,0.00,54.00,VWS V14.01,2013-01-18 17:28:00,
2013-01-18 09:30:00,29.7,29.7,30.33,NE,35,0.0,0.0,100,0.00,,---,0.00,53.00,VWS V14.01,2013-01-18 17:30:00,
2013-01-18 09:33:00,30.0,30.0,30.34,NE,36,0.0,0.0,100,0.00,,---,0.00,53.00,VWS V14.01,2013-01-18 17:33:00,
2013-01-18 09:35:00,29.9,29.9,30.33,NE,35,0.0,1.0,100,0.00,,---,0.00,51.00,VWS V14.01,2013-01-18 17:35:00,
2013-01-18 09:38:00,30.2,30.2,30.34,East,91,2.0,2.0,100,0.00,,---,0.00,62.00,VWS V14.01,2013-01-18 17:38:00,
2013-01-18 09:40:00,30.2,30.2,30.33,ENE,75,0.0,2.0,100,0.00,,---,0.00,62.00,VWS V14.01,2013-01-18 17:40:00,
2013-01-18 09:43:00,30.4,30.4,30.34,East,92,0.0,0.0,100,0.00,,---,0.00,70.00,VWS V14.01,2013-01-18 17:43:00,
2013-01-18 09:45:00,30.4,30.4,30.34,East,92,0.0,2.0,100,0.00,,---,0.00,69.00,VWS V14.01,2013-01-18 17:45:00,
2013-01-18 09:48:00,30.5,30.5,30.34,East,91,0.0,0.0,100,0.00,,---,0.00,63.00,VWS V14.01,2013-01-18 17:48:00,
2013-01-18 09:50:00,30.5,30.5,30.34,East,92,0.0,1.0,100,0.00,,---,0.00,70.00,VWS V14.01,2013-01-18 17:50:00,
2013-01-18 09:53:00,30.6,30.6,30.34,East,93,0.0,0.0,100,0.00,,---,0.00,67.00,VWS V14.01,2013-01-18 17:53:00,
2013-01-18 09:55:00,30.6,30.6,30.34,East,94,0.0,1.0,100,0.00,,---,0.00,69.00,VWS V14.01,2013-01-18 17:55:00,
2013-01-18 09:58:00,30.7,30.7,30.34,East,97,0.0,1.0,100,0.00,,---,0.00,77.00,VWS V14.01,2013-01-18 17:58:00,
2013-01-18 10:00:00,30.7,30.7,30.34,East,94,0.0,2.0,100,0.00,,---,0.00,76.00,VWS V14.01,2013-01-18 18:00:00,
2013-01-18 10:03:00,30.7,30.7,30.34,ENE,78,0.0,0.0,100,0.00,,---,0.00,76.00,VWS V14.01,2013-01-18 18:03:00,
2013-01-18 10:05:00,30.7,30.7,30.34,ENE,78,0.0,2.0,100,0.00,,---,0.00,77.00,VWS V14.01,2013-01-18 18:05:00,
2013-01-18 10:08:00,30.8,30.8,30.34,NE,49,2.0,3.0,100,0.00,,---,0.00,77.00,VWS V14.01,2013-01-18 18:08:00,
2013-01-18 10:10:00,30.8,30.8,30.34,NE,55,2.0,2.0,100,0.00,,---,0.00,76.00,VWS V14.01,2013-01-18 18:10:00,
2013-01-18 10:13:00,30.8,30.8,30.34,NE,48,0.0,0.0,100,0.00,,---,0.00,93.00,VWS V14.01,2013-01-18 18:13:00,
2013-01-18 10:15:00,30.8,30.8,30.34,NE,48,0.0,3.0,100,0.00,,---,0.00,98.00,VWS V14.01,2013-01-18 18:15:00,
2013-01-18 10:18:00,30.7,30.7,30.34,NE,37,2.0,2.0,100,0.00,,---,0.00,95.00,VWS V14.01,2013-01-18 18:18:00,
2013-01-18 10:20:00,30.8,30.8,30.34,NE,37,2.0,3.0,100,0.00,,---,0.00,95.00,VWS V14.01,2013-01-18 18:20:00,
2013-01-18 10:23:00,30.7,30.7,30.34,NE,34,0.0,1.0,100,0.00,,---,0.00,125.00,VWS V14.01,2013-01-18 18:23:00,
2013-01-18 10:25:00,30.7,30.7,30.34,NE,34,1.0,3.0,100,0.00,,---,0.00,109.00,VWS V14.01,2013-01-18 18:25:00,
2013-01-18 10:28:00,30.9,30.9,30.34,NE,34,0.0,0.0,100,0.00,,---,0.00,98.00,VWS V14.01,2013-01-18 18:28:00,
2013-01-18 10:30:00,30.9,30.9,30.34,NE,34,0.0,2.0,100,0.00,,---,0.00,100.00,VWS V14.01,2013-01-18 18:30:00,
2013-01-18 10:33:00,30.7,30.7,30.34,NE,34,2.0,2.0,100,0.01,,---,0.01,107.00,VWS V14.01,2013-01-18 18:33:00,
2013-01-18 10:35:00,30.7,30.7,30.34,NE,34,2.0,3.0,100,0.01,,---,0.01,109.00,VWS V14.01,2013-01-18 18:35:00,
2013-01-18 10:38:00,30.9,30.9,30.34,NNE,30,2.0,2.0,100,0.01,,---,0.01,97.00,VWS V14.01,2013-01-18 18:38:00,
2013-01-18 10:40:00,30.9,30.9,30.34,NNE,30,1.0,3.0,100,0.01,,---,0.01,109.00,VWS V14.01,2013-01-18 18:40:00,
2013-01-18 10:43:00,30.8,30.8,30.34,NNE,29,0.0,1.0,100,0.01,,---,0.01,90.00,VWS V14.01,2013-01-18 18:43:00,
2013-01-18 10:45:00,30.8,30.8,30.34,NNE,29,1.0,3.0,100,0.01,,---,0.01,97.00,VWS V14.01,2013-01-18 18:45:00,
2013-01-18 10:48:00,30.7,30.7,30.34,NNE,29,0.0,0.0,100,0.01,,---,0.01,86.00,VWS V14.01,2013-01-18 18:48:00,
2013-01-18 10:50:00,30.7,30.7,30.34,NNE,29,0.0,1.0,100,0.01,,---,0.01,84.00,VWS V14.01,2013-01-18 18:50:00,
2013-01-18 10:53:00,30.8,30.8,30.34,North,360,2.0,2.0,100,0.01,,---,0.01,95.00,VWS V14.01,2013-01-18 18:53:00,
2013-01-18 10:55:00,30.8,30.8,30.34,NNW,344,0.0,3.0,100,0.01,,---,0.01,91.00,VWS V14.01,2013-01-18 18:55:00,
2013-01-18 10:58:00,30.7,30.7,30.34,South,186,0.0,2.0,100,0.01,,---,0.01,114.00,VWS V14.01,2013-01-18 18:58:00,
2013-01-18 11:00:00,30.7,30.7,30.34,South,185,1.0,2.0,100,0.01,,---,0.01,111.00,VWS V14.01,2013-01-18 19:00:00,
2013-01-18 11:03:00,30.7,30.7,30.34,South,186,0.0,0.0,100,0.01,,---,0.01,137.00,VWS V14.01,2013-01-18 19:03:00,
2013-01-18 11:05:00,30.7,30.7,30.34,South,185,0.0,2.0,100,0.01,,---,0.01,139.00,VWS V14.01,2013-01-18 19:05:00,
2013-01-18 11:08:00,30.9,30.9,30.34,South,185,0.0,0.0,100,0.01,,---,0.01,120.00,VWS V14.01,2013-01-18 19:08:00,
2013-01-18 11:10:00,30.9,30.9,30.34,South,186,0.0,1.0,100,0.01,,---,0.01,121.00,VWS V14.01,2013-01-18 19:10:00,
2013-01-18 11:13:00,31.0,31.0,30.33,South,186,1.0,2.0,100,0.01,,---,0.01,114.00,VWS V14.01,2013-01-18 19:13:00,
2013-01-18 11:15:00,31.0,31.0,30.33,South,185,1.0,1.0,100,0.01,,---,0.01,107.00,VWS V14.01,2013-01-18 19:15:00,
2013-01-18 11:18:00,31.0,31.0,30.33,South,186,0.0,0.0,100,0.01,,---,0.01,134.00,VWS V14.01,2013-01-18 19:18:00,
2013-01-18 11:20:00,30.9,30.9,30.33,South,186,0.0,2.0,100,0.01,,---,0.01,139.00,VWS V14.01,2013-01-18 19:20:00,
2013-01-18 11:23:00,31.1,31.1,30.33,South,184,0.0,0.0,100,0.01,,---,0.01,135.00,VWS V14.01,2013-01-18 19:23:00,
2013-01-18 11:25:00,31.0,31.0,30.33,South,185,0.0,0.0,100,0.01,,---,0.01,149.00,VWS V14.01,2013-01-18 19:25:00,
2013-01-18 11:28:00,31.2,31.2,30.33,South,185,0.0,0.0,100,0.01,,---,0.01,151.00,VWS V14.01,2013-01-18 19:28:00,
2013-01-18 11:30:00,31.1,31.1,30.33,South,186,0.0,0.0,100,0.01,,---,0.01,151.00,VWS V14.01,2013-01-18 19:30:00,
2013-01-18 11:33:00,31.6,31.6,30.33,NW,317,2.0,4.0,100,0.00,,---,0.01,155.00,VWS V14.01,2013-01-18 19:33:00,
2013-01-18 11:35:00,31.5,31.5,30.33,WNW,290,1.0,2.0,100,0.01,,---,0.01,148.00,VWS V14.01,2013-01-18 19:35:00,
2013-01-18 11:38:00,31.4,31.4,30.33,NW,318,0.0,0.0,100,0.00,,---,0.01,207.00,VWS V14.01,2013-01-18 19:38:00,
2013-01-18 11:40:00,31.5,31.5,30.33,NW,318,0.0,4.0,100,0.00,,---,0.01,202.00,VWS V14.01,2013-01-18 19:40:00,
2013-01-18 11:43:00,31.6,31.6,30.33,NNW,335,0.0,0.0,100,0.00,,---,0.01,190.00,VWS V14.01,2013-01-18 19:43:00,
2013-01-18 11:45:00,31.5,31.5,30.33,NW,319,0.0,1.0,100,0.00,,---,0.01,178.00,VWS V14.01,2013-01-18 19:45:00,
2013-01-18 11:48:00,31.5,31.5,30.33,North,360,0.0,0.0,100,0.00,,---,0.01,158.00,VWS V14.01,2013-01-18 19:48:00,
2013-01-18 11:50:00,31.6,31.6,30.33,NNW,336,0.0,0.0,100,0.00,,---,0.01,156.00,VWS V14.01,2013-01-18 19:50:00,
2013-01-18 11:53:00,31.9,31.9,30.32,North,360,1.0,2.0,100,0.00,,---,0.01,199.00,VWS V14.01,2013-01-18 19:53:00,
2013-01-18 11:55:00,33.5,33.5,30.33,SW,232,1.0,3.0,100,0.00,,---,0.01,100.00,VWS V14.01,2013-01-18 19:55:00,
2013-01-18 11:58:00,31.9,31.9,30.33,NW,306,0.0,0.0,100,0.00,,---,0.01,227.00,VWS V14.01,2013-01-18 19:58:00,
2013-01-18 12:00:00,31.9,31.9,30.33,NW,307,0.0,2.0,100,0.00,,---,0.01,230.00,VWS V14.01,2013-01-18 20:00:00,
2013-01-18 12:03:00,32.3,32.3,30.33,WSW,242,0.0,0.0,100,0.00,,---,0.01,144.00,VWS V14.01,2013-01-18 20:03:00,
2013-01-18 12:05:00,32.2,32.2,30.33,WSW,242,0.0,1.0,100,0.00,,---,0.01,142.00,VWS V14.01,2013-01-18 20:05:00,
2013-01-18 12:08:00,32.4,32.4,30.33,WSW,244,0.0,0.0,100,0.00,,---,0.01,207.00,VWS V14.01,2013-01-18 20:08:00,
2013-01-18 12:10:00,32.3,32.3,30.33,WSW,243,0.0,1.0,100,0.00,,---,0.01,193.00,VWS V14.01,2013-01-18 20:10:00,
2013-01-18 12:13:00,32.5,32.5,30.32,WSW,244,1.0,1.0,100,0.00,,---,0.01,174.00,VWS V14.01,2013-01-18 20:13:00,
2013-01-18 12:15:00,32.5,32.5,30.33,WSW,242,1.0,2.0,100,0.00,,---,0.01,174.00,VWS V14.01,2013-01-18 20:15:00,
2013-01-18 12:18:00,32.5,32.5,30.33,WSW,244,1.0,1.0,100,0.00,,---,0.01,176.00,VWS V14.01,2013-01-18 20:18:00,
2013-01-18 12:20:00,32.5,32.5,30.33,WSW,244,0.0,2.0,100,0.00,,---,0.01,163.00,VWS V14.01,2013-01-18 20:20:00,
2013-01-18 12:23:00,32.5,32.5,30.33,WSW,244,0.0,0.0,100,0.00,,---,0.01,116.00,VWS V14.01,2013-01-18 20:23:00,
2013-01-18 12:25:00,34.2,34.2,30.32,South,186,0.0,1.0,100,0.00,,---,0.01,90.00,VWS V14.01,2013-01-18 20:25:00,
2013-01-18 12:28:00,32.8,32.8,30.33,North,360,0.0,0.0,100,0.00,,---,0.01,100.00,VWS V14.01,2013-01-18 20:28:00,
2013-01-18 12:30:00,32.8,32.8,30.33,WSW,242,0.0,1.0,100,0.00,,---,0.01,95.00,VWS V14.01,2013-01-18 20:30:00,
2013-01-18 12:33:00,33.0,33.0,30.33,WSW,250,1.0,2.0,100,0.00,,---,0.01,127.00,VWS V14.01,2013-01-18 20:33:00,
2013-01-18 12:35:00,32.9,32.9,30.33,WSW,244,2.0,3.0,100,0.00,,---,0.01,130.00,VWS V14.01,2013-01-18 20:35:00,
2013-01-18 12:38:00,32.9,32.9,30.33,West,259,0.0,1.0,100,0.00,,---,0.01,137.00,VWS V14.01,2013-01-18 20:38:00,
2013-01-18 12:40:00,32.9,32.9,30.33,WSW,257,1.0,2.0,100,0.00,,---,0.01,141.00,VWS V14.01,2013-01-18 20:40:00,
2013-01-18 12:43:00,33.1,33.1,30.33,WSW,257,1.0,1.0,100,0.00,,---,0.01,111.00,VWS V14.01,2013-01-18 20:43:00,
2013-01-18 12:45:00,33.1,33.1,30.33,WSW,257,1.0,2.0,100,0.00,,---,0.01,123.00,VWS V14.01,2013-01-18 20:45:00,
2013-01-18 12:48:00,33.1,33.1,30.33,WSW,257,0.0,1.0,100,0.00,,---,0.01,111.00,VWS V14.01,2013-01-18 20:48:00,
2013-01-18 12:50:00,33.1,33.1,30.33,WSW,257,1.0,1.0,100,0.00,,---,0.01,111.00,VWS V14.01,2013-01-18 20:50:00,
2013-01-18 12:53:00,33.5,33.5,30.33,SW,231,1.0,1.0,100,0.00,,---,0.01,104.00,VWS V14.01,2013-01-18 20:53:00,
2013-01-18 12:55:00,33.5,33.5,30.33,SW,232,1.0,3.0,100,0.00,,---,0.01,100.00,VWS V14.01,2013-01-18 20:55:00,
2013-01-18 12:58:00,33.4,33.4,30.33,SW,232,1.0,2.0,100,0.00,,---,0.01,88.00,VWS V14.01,2013-01-18 20:58:00,
2013-01-18 13:00:00,33.4,33.4,30.33,SW,231,2.0,3.0,100,0.00,,---,0.01,88.00,VWS V14.01,2013-01-18 21:00:00,
2013-01-18 13:03:00,33.6,33.6,30.33,South,185,2.0,2.0,100,0.00,,---,0.01,90.00,VWS V14.01,2013-01-18 21:03:00,
2013-01-18 13:05:00,33.6,33.6,30.33,South,184,2.0,3.0,100,0.00,,---,0.01,91.00,VWS V14.01,2013-01-18 21:05:00,
2013-01-18 13:08:00,33.7,33.7,30.33,South,184,1.0,1.0,100,0.00,,---,0.01,88.00,VWS V14.01,2013-01-18 21:08:00,
2013-01-18 13:10:00,33.7,33.7,30.33,South,184,1.0,3.0,100,0.00,,---,0.01,90.00,VWS V14.01,2013-01-18 21:10:00,
2013-01-18 13:13:00,33.8,33.8,30.32,South,182,0.0,2.0,100,0.00,,---,0.01,90.00,VWS V14.01,2013-01-18 21:13:00,
2013-01-18 13:15:00,33.8,33.8,30.32,South,184,2.0,2.0,100,0.00,,---,0.01,91.00,VWS V14.01,2013-01-18 21:15:00,
2013-01-18 13:18:00,34.0,34.0,30.32,South,184,0.0,0.0,100,0.00,,---,0.01,90.00,VWS V14.01,2013-01-18 21:18:00,
2013-01-18 13:20:00,34.0,34.0,30.32,South,182,0.0,2.0,100,0.00,,---,0.01,95.00,VWS V14.01,2013-01-18 21:20:00,
2013-01-18 13:23:00,34.3,34.3,30.32,South,184,0.0,0.0,100,0.00,,---,0.01,98.00,VWS V14.01,2013-01-18 21:23:00,
2013-01-18 13:25:00,35.1,35.1,30.33,North,360,1.0,3.0,100,0.00,,---,0.01,79.00,VWS V14.01,2013-01-18 21:25:00,
2013-01-18 13:28:00,34.5,34.5,30.32,South,187,0.0,0.0,100,0.00,,---,0.01,100.00,VWS V14.01,2013-01-18 21:28:00,
2013-01-18 13:30:00,34.4,34.4,30.32,South,184,0.0,0.0,100,0.00,,---,0.01,95.00,VWS V14.01,2013-01-18 21:30:00,
2013-01-18 13:33:00,34.7,34.7,30.33,South,184,0.0,0.0,100,0.00,,---,0.01,90.00,VWS V14.01,2013-01-18 21:33:00,
2013-01-18 13:35:00,34.7,34.7,30.32,South,184,0.0,0.0,100,0.00,,---,0.01,97.00,VWS V14.01,2013-01-18 21:35:00,
2013-01-18 13:38:00,35.1,35.1,30.33,South,172,0.0,0.0,100,0.00,,---,0.01,95.00,VWS V14.01,2013-01-18 21:38:00,
2013-01-18 13:40:00,35.0,35.0,30.33,South,170,0.0,0.0,100,0.00,,---,0.01,104.00,VWS V14.01,2013-01-18 21:40:00,
2013-01-18 13:43:00,35.4,35.4,30.33,South,170,0.0,0.0,100,0.00,,---,0.01,62.00,VWS V14.01,2013-01-18 21:43:00,
2013-01-18 13:45:00,35.4,35.4,30.33,South,169,0.0,1.0,100,0.00,,---,0.01,65.00,VWS V14.01,2013-01-18 21:45:00,
2013-01-18 13:48:00,35.5,35.5,30.33,NNE,31,1.0,1.0,100,0.00,,---,0.01,67.00,VWS V14.01,2013-01-18 21:48:00,
2013-01-18 13:50:00,35.5,35.5,30.33,ESE,117,0.0,1.0,100,0.00,,---,0.01,70.00,VWS V14.01,2013-01-18 21:50:00,
2013-01-18 13:53:00,35.5,35.5,30.32,NE,40,1.0,2.0,100,0.00,,---,0.01,63.00,VWS V14.01,2013-01-18 21:53:00,
2013-01-18 13:55:00,35.5,35.5,30.33,NE,40,1.0,3.0,100,0.00,,---,0.01,65.00,VWS V14.01,2013-01-18 21:55:00,
2013-01-18 13:58:00,35.4,35.4,30.33,East,93,1.0,3.0,100,0.00,,---,0.01,70.00,VWS V14.01,2013-01-18 21:58:00,
2013-01-18 14:00:00,35.4,35.4,30.33,ENE,59,1.0,2.0,100,0.00,,---,0.01,63.00,VWS V14.01,2013-01-18 22:00:00,
2013-01-18 14:03:00,35.3,35.3,30.33,NNE,13,2.0,2.0,100,0.00,,---,0.01,49.00,VWS V14.01,2013-01-18 22:03:00,
2013-01-18 14:05:00,35.3,35.3,30.33,NNE,15,1.0,3.0,100,0.00,,---,0.01,47.00,VWS V14.01,2013-01-18 22:05:00,
2013-01-18 14:08:00,35.2,35.2,30.33,NNE,32,2.0,4.0,100,0.00,,---,0.01,42.00,VWS V14.01,2013-01-18 22:08:00,
2013-01-18 14:10:00,35.2,35.2,30.33,NNE,22,2.0,3.0,100,0.00,,---,0.01,44.00,VWS V14.01,2013-01-18 22:10:00,
2013-01-18 14:13:00,35.1,35.1,30.33,NE,40,0.0,3.0,100,0.00,,---,0.01,76.00,VWS V14.01,2013-01-18 22:13:00,
2013-01-18 14:15:00,35.1,35.1,30.33,NNE,20,3.0,5.0,100,0.00,,---,0.01,83.00,VWS V14.01,2013-01-18 22:15:00,
2013-01-18 14:18:00,35.1,35.1,30.32,NE,38,2.0,2.0,100,0.00,,---,0.01,56.00,VWS V14.01,2013-01-18 22:18:00,
2013-01-18 14:20:00,35.1,35.1,30.33,NE,47,1.0,3.0,100,0.00,,---,0.01,60.00,VWS V14.01,2013-01-18 22:20:00,
2013-01-18 14:23:00,35.1,35.1,30.33,NNE,28,2.0,2.0,100,0.00,,---,0.01,79.00,VWS V14.01,2013-01-18 22:23:00,
2013-01-18 14:25:00,35.1,35.1,30.33,North,360,1.0,3.0,100,0.00,,---,0.01,79.00,VWS V14.01,2013-01-18 22:25:00,
2013-01-18 14:28:00,34.9,34.9,30.33,NE,37,2.0,3.0,100,0.00,,---,0.01,84.00,VWS V14.01,2013-01-18 22:28:00,
2013-01-18 14:30:00,34.9,34.9,30.32,NNE,19,2.0,4.0,100,0.00,,---,0.01,77.00,VWS V14.01,2013-01-18 22:30:00,
2013-01-18 14:33:00,34.6,34.6,30.32,NE,35,0.0,0.0,100,0.00,,---,0.01,79.00,VWS V14.01,2013-01-18 22:33:00,
2013-01-18 14:35:00,34.6,34.6,30.32,NE,35,0.0,4.0,100,0.00,,---,0.01,86.00,VWS V14.01,2013-01-18 22:35:00,
2013-01-18 14:38:00,34.7,34.7,30.33,NE,44,2.0,4.0,100,0.00,,---,0.01,76.00,VWS V14.01,2013-01-18 22:38:00,
2013-01-18 14:40:00,34.7,34.7,30.32,NE,42,2.0,2.0,100,0.00,,---,0.01,81.00,VWS V14.01,2013-01-18 22:40:00,
2013-01-18 14:43:00,34.8,34.8,30.32,ENE,74,0.0,0.0,100,0.00,,---,0.01,84.00,VWS V14.01,2013-01-18 22:43:00,
2013-01-18 14:45:00,34.8,34.8,30.32,ENE,72,0.0,4.0,100,0.00,,---,0.01,83.00,VWS V14.01,2013-01-18 22:45:00,
2013-01-18 14:48:00,34.7,34.7,30.32,NE,36,3.0,4.0,100,0.00,,---,0.01,69.00,VWS V14.01,2013-01-18 22:48:00,
2013-01-18 14:50:00,34.8,34.8,30.32,NE,38,3.0,3.0,100,0.00,,---,0.01,69.00,VWS V14.01,2013-01-18 22:50:00,
2013-01-18 14:53:00,34.6,34.6,30.32,NE,38,0.0,0.0,100,0.00,,---,0.01,58.00,VWS V14.01,2013-01-18 22:53:00,
2013-01-18 14:55:00,34.6,34.6,30.32,NE,38,0.0,4.0,100,0.00,,---,0.01,42.00,VWS V14.01,2013-01-18 22:55:00,
2013-01-18 14:58:00,34.5,34.5,30.32,East,90,0.0,2.0,100,0.00,,---,0.01,58.00,VWS V14.01,2013-01-18 22:58:00,
2013-01-18 15:00:00,34.6,34.6,30.32,East,90,0.0,3.0,100,0.00,,---,0.01,63.00,VWS V14.01,2013-01-18 23:00:00,
2013-01-18 15:03:00,34.4,34.4,30.33,East,90,0.0,0.0,100,0.00,,---,0.01,33.00,VWS V14.01,2013-01-18 23:03:00,
2013-01-18 15:05:00,34.4,34.4,30.33,East,88,0.0,2.0,100,0.00,,---,0.01,30.00,VWS V14.01,2013-01-18 23:05:00,
2013-01-18 15:08:00,34.5,34.5,30.33,ENE,78,0.0,0.0,100,0.00,,---,0.01,49.00,VWS V14.01,2013-01-18 23:08:00,
2013-01-18 15:10:00,34.5,34.5,30.33,East,79,0.0,2.0,100,0.00,,---,0.01,46.00,VWS V14.01,2013-01-18 23:10:00,
2013-01-18 15:13:00,34.5,34.5,30.33,East,80,1.0,1.0,100,0.00,,---,0.01,40.00,VWS V14.01,2013-01-18 23:13:00,
2013-01-18 15:15:00,34.5,34.5,30.33,East,79,0.0,1.0,100,0.00,,---,0.01,44.00,VWS V14.01,2013-01-18 23:15:00,
2013-01-18 15:18:00,34.5,34.5,30.33,NNE,27,1.0,1.0,100,0.00,,---,0.01,33.00,VWS V14.01,2013-01-18 23:18:00,
2013-01-18 15:20:00,34.5,34.5,30.33,NNE,28,0.0,2.0,100,0.00,,---,0.01,32.00,VWS V14.01,2013-01-18 23:20:00,
2013-01-18 15:23:00,34.5,34.5,30.33,NNE,28,1.0,2.0,100,0.00,,---,0.01,39.00,VWS V14.01,2013-01-18 23:23:00,
2013-01-18 15:25:00,34.5,34.5,30.33,NNE,28,0.0,2.0,100,0.00,,---,0.01,37.00,VWS V14.01,2013-01-18 23:25:00,
2013-01-18 15:29:00,34.4,34.4,30.33,North,360,0.0,3.0,100,0.00,,---,0.01,37.00,VWS V14.01,2013-01-18 23:29:00,
2013-01-18 15:30:00,34.5,34.5,30.33,North,360,3.0,3.0,100,0.00,,---,0.01,33.00,VWS V14.01,2013-01-18 23:30:00,
2013-01-18 15:34:00,34.3,34.3,30.33,NNE,22,1.0,1.0,100,0.00,,---,0.01,42.00,VWS V14.01,2013-01-18 23:34:00,
2013-01-18 15:35:00,34.3,34.3,30.33,NNE,21,0.0,3.0,100,0.00,,---,0.01,39.00,VWS V14.01,2013-01-18 23:35:00,
2013-01-18 15:39:00,34.2,34.2,30.33,NW,317,0.0,1.0,100,0.00,,---,0.01,46.00,VWS V14.01,2013-01-18 23:39:00,
2013-01-18 15:40:00,34.2,34.2,30.33,NW,317,1.0,4.0,100,0.00,,---,0.01,49.00,VWS V14.01,2013-01-18 23:40:00,
2013-01-18 15:44:00,34.1,34.1,30.33,NW,325,0.0,0.0,100,0.00,,---,0.01,35.00,VWS V14.01,2013-01-18 23:44:00,
2013-01-18 15:45:00,34.2,34.2,30.33,North,360,0.0,3.0,100,0.00,,---,0.01,35.00,VWS V14.01,2013-01-18 23:45:00,
2013-01-18 15:49:00,34.0,34.0,30.33,NNW,339,0.0,1.0,100,0.00,,---,0.01,28.00,VWS V14.01,2013-01-18 23:49:00,
2013-01-18 15:50:00,34.0,34.0,30.33,NW,325,0.0,0.0,100,0.00,,---,0.01,30.00,VWS V14.01,2013-01-18 23:50:00,
2013-01-18 15:54:00,33.9,33.9,30.33,North,360,0.0,0.0,100,0.00,,---,0.01,25.00,VWS V14.01,2013-01-18 23:54:00,
2013-01-18 15:55:00,33.9,33.9,30.33,North,350,0.0,1.0,100,0.00,,---,0.01,25.00,VWS V14.01,2013-01-18 23:55:00,
2013-01-18 15:59:00,33.9,33.9,30.33,North,360,0.0,0.0,100,0.00,,---,0.01,12.00,VWS V14.01,2013-01-18 23:59:00,
2013-01-18 16:00:00,33.9,33.9,30.33,North,360,0.0,1.0,100,0.00,,---,0.01,14.00,VWS V14.01,2013-01-19 00:00:00,
2013-01-18 16:04:00,34.0,34.0,30.33,North,350,1.0,2.0,100,0.00,,---,0.01,14.00,VWS V14.01,2013-01-19 00:04:00,
2013-01-18 16:05:00,33.9,33.9,30.33,North,350,1.0,2.0,100,0.00,,---,0.01,11.00,VWS V14.01,2013-01-19 00:05:00,
2013-01-18 16:09:00,33.9,33.9,30.33,NNE,26,1.0,4.0,100,0.00,,---,0.01,9.00,VWS V14.01,2013-01-19 00:09:00,
2013-01-18 16:10:00,34.0,34.0,30.33,NNE,24,4.0,4.0,100,0.00,,---,0.01,11.00,VWS V14.01,2013-01-19 00:10:00,
2013-01-18 16:14:00,33.9,33.9,30.33,NE,40,0.0,2.0,100,0.00,,---,0.01,7.00,VWS V14.01,2013-01-19 00:14:00,
2013-01-18 16:15:00,33.9,33.9,30.33,NE,39,1.0,4.0,100,0.00,,---,0.01,7.00,VWS V14.01,2013-01-19 00:15:00,
2013-01-18 16:19:00,33.9,33.9,30.33,NE,40,0.0,1.0,100,0.00,,---,0.01,7.00,VWS V14.01,2013-01-19 00:19:00,
2013-01-18 16:20:00,33.9,33.9,30.33,NE,40,0.0,2.0,100,0.00,,---,0.01,7.00,VWS V14.01,2013-01-19 00:20:00,
2013-01-18 16:24:00,33.8,33.8,30.33,NE,40,0.0,0.0,100,0.00,,---,0.01,9.00,VWS V14.01,2013-01-19 00:24:00,
2013-01-18 16:25:00,33.8,33.8,30.33,NE,39,0.0,1.0,100,0.00,,---,0.01,9.00,VWS V14.01,2013-01-19 00:25:00,
2013-01-18 16:29:00,33.8,33.8,30.33,North,360,0.0,2.0,100,0.00,,---,0.01,5.00,VWS V14.01,2013-01-19 00:29:00,
2013-01-18 16:30:00,33.8,33.8,30.33,North,360,2.0,3.0,100,0.00,,---,0.01,5.00,VWS V14.01,2013-01-19 00:30:00,
2013-01-18 16:34:00,33.7,33.7,30.33,NNW,342,2.0,3.0,100,0.00,,---,0.01,5.00,VWS V14.01,2013-01-19 00:34:00,
2013-01-18 16:35:00,33.7,33.7,30.33,NNW,338,3.0,4.0,100,0.00,,---,0.01,5.00,VWS V14.01,2013-01-19 00:35:00,
2013-01-18 16:39:00,33.5,33.5,30.33,North,360,0.0,0.0,100,0.00,,---,0.01,0.00,VWS V14.01,2013-01-19 00:39:00,
2013-01-18 16:40:00,33.6,33.6,30.33,North,349,0.0,3.0,100,0.00,,---,0.01,0.00,VWS V14.01,2013-01-19 00:40:00,
2013-01-18 16:44:00,33.5,33.5,30.33,NNW,348,0.0,2.0,100,0.00,,---,0.01,0.00,VWS V14.01,2013-01-19 00:44:00,
2013-01-18 16:45:00,33.5,33.5,30.33,NNW,347,0.0,3.0,100,0.00,,---,0.01,0.00,VWS V14.01,2013-01-19 00:45:00,
2013-01-18 16:49:00,33.5,33.5,30.33,NNW,338,0.0,0.0,100,0.00,,---,0.01,0.00,VWS V14.01,2013-01-19 00:49:00,
2013-01-18 16:50:00,33.5,33.5,30.33,North,360,0.0,4.0,100,0.00,,---,0.01,0.00,VWS V14.01,2013-01-19 00:50:00,
2013-01-18 16:54:00,33.4,33.4,30.33,NNW,338,0.0,2.0,100,0.00,,---,0.01,0.00,VWS V14.01,2013-01-19 00:54:00,
2013-01-18 16:55:00,33.5,33.5,30.33,NNW,338,1.0,2.0,100,0.00,,---,0.01,0.00,VWS V14.01,2013-01-19 00:55:00,
2013-01-18 16:59:00,33.4,33.4,30.33,NNW,338,0.0,3.0,100,0.00,,---,0.01,0.00,VWS V14.01,2013-01-19 00:59:00,
2013-01-18 17:00:00,33.4,33.4,30.33,NNW,338,3.0,3.0,100,0.00,,---,0.01,0.00,VWS V14.01,2013-01-19 01:00:00,
2013-01-18 17:04:00,33.3,33.3,30.33,North,360,0.0,0.0,100,0.00,,---,0.01,0.00,VWS V14.01,2013-01-19 01:04:00,
2013-01-18 17:05:00,33.3,33.3,30.33,NNW,338,0.0,3.0,100,0.00,,---,0.01,0.00,VWS V14.01,2013-01-19 01:05:00,
2013-01-18 17:09:00,33.2,33.2,30.33,NNE,27,0.0,0.0,100,0.00,,---,0.01,0.00,VWS V14.01,2013-01-19 01:09:00,
2013-01-18 17:10:00,33.2,33.2,30.33,NNE,27,0.0,2.0,100,0.00,,---,0.01,0.00,VWS V14.01,2013-01-19 01:10:00,
2013-01-18 17:14:00,33.0,33.0,30.33,East,86,0.0,0.0,100,0.00,,---,0.01,0.00,VWS V14.01,2013-01-19 01:14:00,
2013-01-18 17:15:00,33.1,33.1,30.33,East,84,0.0,2.0,100,0.00,,---,0.01,0.00,VWS V14.01,2013-01-19 01:15:00,
2013-01-18 17:19:00,33.0,33.0,30.33,East,86,0.0,0.0,100,0.00,,---,0.01,0.00,VWS V14.01,2013-01-19 01:19:00,
2013-01-18 17:20:00,33.0,33.0,30.33,East,84,0.0,0.0,100,0.00,,---,0.01,0.00,VWS V14.01,2013-01-19 01:20:00,
2013-01-18 17:24:00,33.0,33.0,30.33,East,85,0.0,0.0,100,0.00,,---,0.01,0.00,VWS V14.01,2013-01-19 01:24:00,
2013-01-18 17:25:00,33.0,33.0,30.33,East,85,0.0,0.0,100,0.00,,---,0.01,0.00,VWS V14.01,2013-01-19 01:25:00,
2013-01-18 17:29:00,33.0,33.0,30.33,ENE,75,0.0,2.0,100,0.00,,---,0.01,0.00,VWS V14.01,2013-01-19 01:29:00,
2013-01-18 17:30:00,33.0,33.0,30.33,East,86,2.0,2.0,100,0.00,,---,0.01,0.00,VWS V14.01,2013-01-19 01:30:00,
2013-01-18 17:34:00,32.9,32.9,30.33,North,5,0.0,2.0,100,0.00,,---,0.01,0.00,VWS V14.01,2013-01-19 01:34:00,
2013-01-18 17:35:00,32.9,32.9,30.33,North,5,2.0,2.0,100,0.00,,---,0.01,0.00,VWS V14.01,2013-01-19 01:35:00,
2013-01-18 17:39:00,32.9,32.9,30.33,North,5,0.0,0.0,100,0.00,,---,0.01,0.00,VWS V14.01,2013-01-19 01:39:00,
2013-01-18 17:40:00,32.9,32.9,30.33,North,5,0.0,2.0,100,0.00,,---,0.01,0.00,VWS V14.01,2013-01-19 01:40:00,
2013-01-18 17:44:00,32.8,32.8,30.33,North,5,0.0,1.0,100,0.00,,---,0.01,0.00,VWS V14.01,2013-01-19 01:44:00,
2013-01-18 17:45:00,32.8,32.8,30.34,North,5,1.0,2.0,100,0.00,,---,0.01,0.00,VWS V14.01,2013-01-19 01:45:00,
2013-01-18 17:49:00,32.8,32.8,30.34,NNE,19,0.0,3.0,100,0.00,,---,0.01,0.00,VWS V14.01,2013-01-19 01:49:00,
2013-01-18 17:50:00,32.8,32.8,30.34,NNE,19,3.0,3.0,100,0.00,,---,0.01,0.00,VWS V14.01,2013-01-19 01:50:00,
2013-01-18 17:54:00,32.7,32.7,30.34,NE,38,0.0,0.0,100,0.00,,---,0.01,0.00,VWS V14.01,2013-01-19 01:54:00,
2013-01-18 17:55:00,32.7,32.7,30.34,NE,38,0.0,3.0,100,0.00,,---,0.01,0.00,VWS V14.01,2013-01-19 01:55:00,
2013-01-18 17:59:00,32.7,32.7,30.34,NE,38,0.0,1.0,100,0.00,,---,0.01,0.00,VWS V14.01,2013-01-19 01:59:00,
2013-01-18 18:00:00,32.7,32.7,30.34,NE,38,0.0,1.0,100,0.00,,---,0.01,0.00,VWS V14.01,2013-01-19 02:00:00,
2013-01-18 18:04:00,32.6,32.6,30.34,NE,37,0.0,2.0,100,0.00,,---,0.01,0.00,VWS V14.01,2013-01-19 02:04:00,
2013-01-18 18:05:00,32.6,32.6,30.34,NE,38,2.0,3.0,100,0.00,,---,0.01,0.00,VWS V14.01,2013-01-19 02:05:00,
2013-01-18 18:09:00,32.5,32.5,30.34,NE,43,1.0,4.0,100,0.00,,---,0.01,0.00,VWS V14.01,2013-01-19 02:09:00,
2013-01-18 18:10:00,32.6,32.6,30.34,NE,36,4.0,4.0,100,0.00,,---,0.01,0.00,VWS V14.01,2013-01-19 02:10:00,
2013-01-18 18:14:00,32.5,32.5,30.34,NE,44,0.0,1.0,100,0.00,,---,0.01,0.00,VWS V14.01,2013-01-19 02:14:00,
2013-01-18 18:15:00,32.5,32.5,30.34,NE,43,0.0,4.0,100,0.00,,---,0.01,0.00,VWS V14.01,2013-01-19 02:15:00,
2013-01-18 18:19:00,32.4,32.4,30.34,NE,44,0.0,1.0,100,0.00,,---,0.01,0.00,VWS V14.01,2013-01-19 02:19:00,
2013-01-18 18:20:00,32.5,32.5,30.34,NE,43,0.0,1.0,100,0.00,,---,0.01,0.00,VWS V14.01,2013-01-19 02:20:00,
2013-01-18 18:24:00,32.3,32.3,30.34,NE,43,0.0,1.0,100,0.00,,---,0.01,0.00,VWS V14.01,2013-01-19 02:24:00,
2013-01-18 18:25:00,32.4,32.4,30.34,NE,44,0.0,2.0,100,0.00,,---,0.01,0.00,VWS V14.01,2013-01-19 02:25:00,
2013-01-18 18:29:00,32.3,32.3,30.34,NE,44,0.0,0.0,100,0.00,,---,0.01,0.00,VWS V14.01,2013-01-19 02:29:00,
2013-01-18 18:30:00,32.3,32.3,30.34,NE,43,0.0,1.0,100,0.00,,---,0.01,0.00,VWS V14.01,2013-01-19 02:30:00,
2013-01-18 18:34:00,32.3,32.3,30.34,NE,43,0.0,0.0,100,0.00,,---,0.01,0.00,VWS V14.01,2013-01-19 02:34:00,
2013-01-18 18:35:00,32.2,32.2,30.34,NE,43,0.0,0.0,100,0.00,,---,0.01,0.00,VWS V14.01,2013-01-19 02:35:00,
2013-01-18 18:39:00,32.2,32.2,30.34,NE,44,1.0,2.0,100,0.00,,---,0.01,0.00,VWS V14.01,2013-01-19 02:39:00,
2013-01-18 18:40:00,32.2,32.2,30.34,NE,44,0.0,1.0,100,0.00,,---,0.01,0.00,VWS V14.01,2013-01-19 02:40:00,
2013-01-18 18:44:00,32.2,32.2,30.34,NE,44,0.0,0.0,100,0.00,,---,0.01,0.00,VWS V14.01,2013-01-19 02:44:00,
2013-01-18 18:45:00,32.2,32.2,30.34,NE,44,0.0,2.0,100,0.00,,---,0.01,0.00,VWS V14.01,2013-01-19 02:45:00,
2013-01-18 18:49:00,32.1,32.1,30.34,NE,43,0.0,1.0,100,0.00,,---,0.01,0.00,VWS V14.01,2013-01-19 02:49:00,
2013-01-18 18:50:00,32.1,32.1,30.34,NE,43,0.0,1.0,100,0.00,,---,0.01,0.00,VWS V14.01,2013-01-19 02:50:00,
2013-01-18 18:54:00,32.0,32.0,30.34,NE,44,0.0,0.0,100,0.00,,---,0.01,0.00,VWS V14.01,2013-01-19 02:54:00,
2013-01-18 18:55:00,32.1,32.1,30.34,NE,44,0.0,1.0,100,0.00,,---,0.01,0.00,VWS V14.01,2013-01-19 02:55:00,
2013-01-18 18:59:00,32.0,32.0,30.34,NE,44,0.0,0.0,100,0.00,,---,0.01,0.00,VWS V14.01,2013-01-19 02:59:00,
2013-01-18 19:00:00,32.0,32.0,30.34,NE,44,0.0,0.0,100,0.00,,---,0.01,0.00,VWS V14.01,2013-01-19 03:00:00,
2013-01-18 19:04:00,32.0,32.0,30.34,NE,44,0.0,0.0,100,0.00,,---,0.01,0.00,VWS V14.01,2013-01-19 03:04:00,
2013-01-18 19:05:00,32.0,32.0,30.34,NE,44,0.0,0.0,100,0.00,,---,0.01,0.00,VWS V14.01,2013-01-19 03:05:00,
2013-01-18 19:09:00,32.0,32.0,30.34,NE,43,0.0,0.0,100,0.00,,---,0.01,0.00,VWS V14.01,2013-01-19 03:09:00,
2013-01-18 19:10:00,32.0,32.0,30.34,NE,43,0.0,0.0,100,0.00,,---,0.01,0.00,VWS V14.01,2013-01-19 03:10:00,
2013-01-18 19:14:00,32.0,32.0,30.34,ENE,58,0.0,0.0,100,0.00,,---,0.01,0.00,VWS V14.01,2013-01-19 03:14:00,
2013-01-18 19:15:00,32.0,32.0,30.34,ENE,57,0.0,1.0,100,0.00,,---,0.01,0.00,VWS V14.01,2013-01-19 03:15:00,
2013-01-18 19:19:00,32.0,32.0,30.34,ENE,57,0.0,0.0,100,0.00,,---,0.01,0.00,VWS V14.01,2013-01-19 03:19:00,
2013-01-18 19:20:00,32.0,32.0,30.34,ENE,57,0.0,0.0,100,0.00,,---,0.01,0.00,VWS V14.01,2013-01-19 03:20:00,
2013-01-18 19:24:00,32.0,32.0,30.34,ENE,58,0.0,0.0,100,0.00,,---,0.01,0.00,VWS V14.01,2013-01-19 03:24:00,
2013-01-18 19:25:00,32.0,32.0,30.34,ENE,57,0.0,0.0,100,0.00,,---,0.01,0.00,VWS V14.01,2013-01-19 03:25:00,
2013-01-18 19:29:00,32.0,32.0,30.34,ENE,58,0.0,1.0,100,0.00,,---,0.01,0.00,VWS V14.01,2013-01-19 03:29:00,
2013-01-18 19:30:00,32.0,32.0,30.34,ENE,57,0.0,0.0,100,0.00,,---,0.01,0.00,VWS V14.01,2013-01-19 03:30:00,
2013-01-18 19:34:00,32.0,32.0,30.34,ENE,58,0.0,0.0,100,0.00,,---,0.01,0.00,VWS V14.01,2013-01-19 03:34:00,
2013-01-18 19:35:00,32.1,32.1,30.34,ENE,57,0.0,1.0,100,0.00,,---,0.01,0.00,VWS V14.01,2013-01-19 03:35:00,
2013-01-18 19:39:00,32.0,32.0,30.34,ENE,57,0.0,0.0,100,0.00,,---,0.01,0.00,VWS V14.01,2013-01-19 03:39:00,
2013-01-18 19:40:00,32.0,32.0,30.34,ENE,57,0.0,0.0,100,0.00,,---,0.01,0.00,VWS V14.01,2013-01-19 03:40:00,
2013-01-18 19:44:00,32.1,32.1,30.34,ENE,57,0.0,0.0,100,0.00,,---,0.01,0.00,VWS V14.01,2013-01-19 03:44:00,
2013-01-18 19:45:00,32.0,32.0,30.34,ENE,58,0.0,0.0,100,0.00,,---,0.01,0.00,VWS V14.01,2013-01-19 03:45:00,
2013-01-18 19:49:00,32.0,32.0,30.34,ESE,118,3.0,3.0,100,0.00,,---,0.01,0.00,VWS V14.01,2013-01-19 03:49:00,
2013-01-18 19:50:00,32.0,32.0,30.34,NE,44,1.0,2.0,100,0.00,,---,0.01,0.00,VWS V14.01,2013-01-19 03:50:00,
2013-01-18 19:54:00,31.9,31.9,30.35,East,101,0.0,0.0,100,0.00,,---,0.01,0.00,VWS V14.01,2013-01-19 03:54:00,
2013-01-18 19:55:00,31.9,31.9,30.34,East,101,0.0,3.0,100,0.00,,---,0.01,0.00,VWS V14.01,2013-01-19 03:55:00,
2013-01-18 19:59:00,31.8,31.8,30.34,East,99,0.0,0.0,100,0.00,,---,0.01,0.00,VWS V14.01,2013-01-19 03:59:00,
2013-01-18 20:00:00,31.8,31.8,30.34,East,100,0.0,1.0,100,0.00,,---,0.01,0.00,VWS V14.01,2013-01-19 04:00:00,
2013-01-18 20:04:00,31.7,31.7,30.35,East,99,0.0,0.0,100,0.00,,---,0.01,0.00,VWS V14.01,2013-01-19 04:04:00,
2013-01-18 20:05:00,31.7,31.7,30.35,East,99,0.0,0.0,100,0.00,,---,0.01,0.00,VWS V14.01,2013-01-19 04:05:00,
2013-01-18 20:09:00,31.7,31.7,30.35,East,101,0.0,0.0,100,0.00,,---,0.01,0.00,VWS V14.01,2013-01-19 04:09:00,
2013-01-18 20:10:00,31.7,31.7,30.35,East,101,0.0,0.0,100,0.00,,---,0.01,0.00,VWS V14.01,2013-01-19 04:10:00,
2013-01-18 20:14:00,31.6,31.6,30.35,East,100,0.0,0.0,100,0.00,,---,0.01,0.00,VWS V14.01,2013-01-19 04:14:00,
2013-01-18 20:15:00,31.7,31.7,30.35,East,101,0.0,0.0,100,0.00,,---,0.01,0.00,VWS V14.01,2013-01-19 04:15:00,
2013-01-18 20:19:00,31.6,31.6,30.35,East,101,0.0,1.0,100,0.00,,---,0.01,0.00,VWS V14.01,2013-01-19 04:19:00,
2013-01-18 20:20:00,31.6,31.6,30.35,East,101,0.0,1.0,100,0.00,,---,0.01,0.00,VWS V14.01,2013-01-19 04:20:00,
2013-01-18 20:24:00,31.6,31.6,30.35,East,98,0.0,1.0,100,0.00,,---,0.01,0.00,VWS V14.01,2013-01-19 04:24:00,
2013-01-18 20:25:00,31.6,31.6,30.35,East,100,0.0,1.0,100,0.00,,---,0.01,0.00,VWS V14.01,2013-01-19 04:25:00,
2013-01-18 20:29:00,31.6,31.6,30.35,East,100,0.0,0.0,100,0.00,,---,0.01,0.00,VWS V14.01,2013-01-19 04:29:00,
2013-01-18 20:30:00,31.5,31.5,30.35,East,100,0.0,1.0,100,0.00,,---,0.01,0.00,VWS V14.01,2013-01-19 04:30:00,
2013-01-18 20:34:00,31.6,31.6,30.35,East,98,0.0,0.0,100,0.00,,---,0.01,0.00,VWS V14.01,2013-01-19 04:34:00,
2013-01-18 20:35:00,31.6,31.6,30.35,East,98,0.0,0.0,100,0.00,,---,0.01,0.00,VWS V14.01,2013-01-19 04:35:00,
2013-01-18 20:39:00,31.6,31.6,30.35,SSE,153,3.0,3.0,100,0.00,,---,0.01,0.00,VWS V14.01,2013-01-19 04:39:00,
2013-01-18 20:40:00,31.6,31.6,30.35,East,98,0.0,0.0,100,0.00,,---,0.01,0.00,VWS V14.01,2013-01-19 04:40:00,
2013-01-18 20:44:00,31.5,31.5,30.36,SSE,153,1.0,2.0,100,0.00,,---,0.01,0.00,VWS V14.01,2013-01-19 04:44:00,
2013-01-18 20:45:00,31.5,31.5,30.35,SSE,152,0.0,3.0,100,0.00,,---,0.01,0.00,VWS V14.01,2013-01-19 04:45:00,
2013-01-18 20:49:00,31.5,31.5,30.36,South,171,1.0,2.0,100,0.00,,---,0.01,0.00,VWS V14.01,2013-01-19 04:49:00,
2013-01-18 20:50:00,31.5,31.5,30.35,South,176,2.0,2.0,100,0.00,,---,0.01,0.00,VWS V14.01,2013-01-19 04:50:00,
2013-01-18 20:54:00,31.4,31.4,30.36,SSE,166,0.0,1.0,100,0.00,,---,0.01,0.00,VWS V14.01,2013-01-19 04:54:00,
2013-01-18 20:55:00,31.4,31.4,30.36,SSE,168,0.0,3.0,100,0.00,,---,0.01,0.00,VWS V14.01,2013-01-19 04:55:00,
2013-01-18 20:59:00,31.4,31.4,30.36,SSE,165,1.0,1.0,100,0.00,,---,0.01,0.00,VWS V14.01,2013-01-19 04:59:00,
2013-01-18 21:00:00,31.3,31.3,30.36,SSE,165,1.0,1.0,100,0.00,,---,0.01,0.00,VWS V14.01,2013-01-19 05:00:00,
2013-01-18 21:01:00,31.3,31.3,30.36,SSE,167,0.0,1.0,100,0.00,,---,0.01,0.00,VWS V14.01,2013-01-19 05:01:00,
2013-01-18 21:05:00,31.3,31.3,30.36,SSE,167,0.0,1.0,100,0.00,,---,0.01,0.00,VWS V14.01,2013-01-19 05:05:00,
2013-01-18 21:07:00,31.3,31.3,30.36,SSE,168,0.0,0.0,100,0.00,,---,0.01,0.00,VWS V14.01,2013-01-19 05:07:00,
2013-01-18 21:10:00,31.3,31.3,30.36,SSE,166,0.0,0.0,100,0.00,,---,0.01,0.00,VWS V14.01,2013-01-19 05:10:00,
2013-01-18 21:12:00,31.3,31.3,30.36,East,92,1.0,2.0,100,0.00,,---,0.01,0.00,VWS V14.01,2013-01-19 05:12:00,
2013-01-18 21:15:00,31.3,31.3,30.36,East,94,0.0,2.0,100,0.00,,---,0.01,0.00,VWS V14.01,2013-01-19 05:15:00,
2013-01-18 21:17:00,31.3,31.3,30.36,NNE,23,1.0,2.0,100,0.00,,---,0.01,0.00,VWS V14.01,2013-01-19 05:17:00,
2013-01-18 21:20:00,31.3,31.3,30.37,NNE,22,0.0,2.0,100,0.00,,---,0.01,0.00,VWS V14.01,2013-01-19 05:20:00,
2013-01-18 21:22:00,31.2,31.2,30.37,NE,42,1.0,3.0,100,0.00,,---,0.01,0.00,VWS V14.01,2013-01-19 05:22:00,
2013-01-18 21:25:00,31.2,31.2,30.37,NE,42,2.0,3.0,100,0.00,,---,0.01,0.00,VWS V14.01,2013-01-19 05:25:00,
2013-01-18 21:26:00,31.2,31.2,30.37,NE,40,0.0,3.0,100,0.00,,---,0.01,0.00,VWS V14.01,2013-01-19 05:26:00,
2013-01-18 21:30:00,31.1,31.1,30.37,NE,37,1.0,3.0,100,0.00,,---,0.01,0.00,VWS V14.01,2013-01-19 05:30:00,
2013-01-18 21:32:00,31.1,31.1,30.37,NE,37,0.0,1.0,100,0.00,,---,0.01,0.00,VWS V14.01,2013-01-19 05:32:00,
2013-01-18 21:35:00,31.1,31.1,30.37,NE,37,0.0,1.0,100,0.00,,---,0.01,0.00,VWS V14.01,2013-01-19 05:35:00,
2013-01-18 21:37:00,31.0,31.0,30.37,NE,36,0.0,2.0,100,0.00,,---,0.01,0.00,VWS V14.01,2013-01-19 05:37:00,
2013-01-18 21:40:00,31.0,31.0,30.37,NE,37,0.0,2.0,100,0.00,,---,0.01,0.00,VWS V14.01,2013-01-19 05:40:00,
2013-01-18 21:42:00,31.0,31.0,30.37,NE,36,0.0,1.0,100,0.00,,---,0.01,0.00,VWS V14.01,2013-01-19 05:42:00,
2013-01-18 21:45:00,31.0,31.0,30.37,NE,36,0.0,1.0,100,0.00,,---,0.01,0.00,VWS V14.01,2013-01-19 05:45:00,
2013-01-18 21:47:00,31.0,31.0,30.37,NE,35,0.0,2.0,100,0.00,,---,0.01,0.00,VWS V14.01,2013-01-19 05:47:00,
2013-01-18 21:50:00,31.0,31.0,30.37,NE,35,2.0,2.0,100,0.00,,---,0.01,0.00,VWS V14.01,2013-01-19 05:50:00,
2013-01-18 21:52:00,31.0,31.0,30.37,NNE,24,3.0,3.0,100,0.00,,---,0.01,0.00,VWS V14.01,2013-01-19 05:52:00,
2013-01-18 21:55:00,31.0,31.0,30.37,NNE,24,0.0,3.0,100,0.00,,---,0.01,0.00,VWS V14.01,2013-01-19 05:55:00,
2013-01-18 21:57:00,30.9,30.9,30.37,North,355,3.0,3.0,100,0.00,,---,0.01,0.00,VWS V14.01,2013-01-19 05:57:00,
2013-01-18 22:00:00,30.9,30.9,30.37,North,360,2.0,3.0,100,0.00,,---,0.01,0.00,VWS V14.01,2013-01-19 06:00:00,
2013-01-18 22:02:00,30.9,30.9,30.37,North,5,2.0,4.0,100,0.00,,---,0.01,0.00,VWS V14.01,2013-01-19 06:02:00,
2013-01-18 22:05:00,30.8,30.8,30.37,North,355,3.0,4.0,100,0.00,,---,0.01,0.00,VWS V14.01,2013-01-19 06:05:00,
2013-01-18 22:07:00,30.7,30.7,30.37,North,360,2.0,4.0,100,0.00,,---,0.01,0.00,VWS V14.01,2013-01-19 06:07:00,
2013-01-18 22:10:00,30.7,30.7,30.37,North,355,2.0,4.0,100,0.00,,---,0.01,0.00,VWS V14.01,2013-01-19 06:10:00,
2013-01-18 22:12:00,30.6,30.6,30.37,North,360,2.0,4.0,100,0.00,,---,0.01,0.00,VWS V14.01,2013-01-19 06:12:00,
2013-01-18 22:15:00,30.6,30.6,30.37,NNW,348,2.0,4.0,100,0.00,,---,0.01,0.00,VWS V14.01,2013-01-19 06:15:00,
2013-01-18 22:17:00,30.5,30.5,30.37,North,360,1.0,3.0,100,0.00,,---,0.01,0.00,VWS V14.01,2013-01-19 06:17:00,
2013-01-18 22:20:00,30.5,30.5,30.37,North,350,0.0,3.0,100,0.00,,---,0.01,0.00,VWS V14.01,2013-01-19 06:20:00,
2013-01-18 22:22:00,30.5,30.5,30.37,NE,38,0.0,2.0,100,0.00,,---,0.01,0.00,VWS V14.01,2013-01-19 06:22:00,
2013-01-18 22:25:00,30.5,30.5,30.37,NE,49,3.0,3.0,100,0.00,,---,0.01,0.00,VWS V14.01,2013-01-19 06:25:00,
2013-01-18 22:27:00,30.4,30.4,30.37,NE,37,2.0,3.0,100,0.00,,---,0.01,0.00,VWS V14.01,2013-01-19 06:27:00,
2013-01-18 22:30:00,30.4,30.4,30.37,NE,45,1.0,3.0,100,0.00,,---,0.01,0.00,VWS V14.01,2013-01-19 06:30:00,
2013-01-18 22:32:00,30.3,30.3,30.37,NE,50,2.0,3.0,100,0.00,,---,0.01,0.00,VWS V14.01,2013-01-19 06:32:00,
2013-01-18 22:35:00,30.3,30.3,30.37,NE,40,3.0,3.0,100,0.00,,---,0.01,0.00,VWS V14.01,2013-01-19 06:35:00,
2013-01-18 22:37:00,30.2,30.2,30.37,NNE,28,0.0,3.0,100,0.00,,---,0.01,0.00,VWS V14.01,2013-01-19 06:37:00,
2013-01-18 22:40:00,30.1,30.1,30.37,NNE,28,2.0,3.0,100,0.00,,---,0.01,0.00,VWS V14.01,2013-01-19 06:40:00,
2013-01-18 22:42:00,30.1,30.1,30.37,NNE,31,0.0,2.0,100,0.00,,---,0.01,0.00,VWS V14.01,2013-01-19 06:42:00,
2013-01-18 22:45:00,30.1,30.1,30.37,NNE,31,0.0,2.0,100,0.00,,---,0.01,0.00,VWS V14.01,2013-01-19 06:45:00,
2013-01-18 22:47:00,30.0,30.0,30.37,NNE,30,0.0,1.0,100,0.00,,---,0.01,0.00,VWS V14.01,2013-01-19 06:47:00,
2013-01-18 22:50:00,30.1,30.1,30.37,NNE,30,0.0,1.0,100,0.00,,---,0.01,0.00,VWS V14.01,2013-01-19 06:50:00,
2013-01-18 22:52:00,30.0,30.0,30.37,NE,35,2.0,4.0,100,0.00,,---,0.01,0.00,VWS V14.01,2013-01-19 06:52:00,
2013-01-18 22:55:00,29.9,29.9,30.37,North,360,4.0,4.0,100,0.00,,---,0.01,0.00,VWS V14.01,2013-01-19 06:55:00,
2013-01-18 22:57:00,29.8,29.8,30.37,North,351,2.0,4.0,100,0.00,,---,0.01,0.00,VWS V14.01,2013-01-19 06:57:00,
2013-01-18 23:00:00,29.7,29.7,30.37,North,360,2.0,4.0,100,0.00,,---,0.01,0.00,VWS V14.01,2013-01-19 07:00:00,
2013-01-18 23:02:00,29.7,29.7,30.37,NE,36,0.0,3.0,100,0.00,,---,0.01,0.00,VWS V14.01,2013-01-19 07:02:00,
2013-01-18 23:05:00,29.7,29.7,30.37,NE,36,0.0,3.0,100,0.00,,---,0.01,0.00,VWS V14.01,2013-01-19 07:05:00,
2013-01-18 23:07:00,29.6,29.6,30.38,NE,35,0.0,1.0,100,0.00,,---,0.01,0.00,VWS V14.01,2013-01-19 07:07:00,
2013-01-18 23:10:00,29.6,29.6,30.38,NE,36,0.0,1.0,100,0.00,,---,0.01,0.00,VWS V14.01,2013-01-19 07:10:00,
2013-01-18 23:12:00,29.6,29.6,30.37,NE,36,0.0,0.0,100,0.00,,---,0.01,0.00,VWS V14.01,2013-01-19 07:12:00,
2013-01-18 23:15:00,29.6,29.6,30.37,NE,36,0.0,1.0,100,0.00,,---,0.01,0.00,VWS V14.01,2013-01-19 07:15:00,
2013-01-18 23:17:00,29.6,29.6,30.37,North,360,0.0,2.0,100,0.00,,---,0.01,0.00,VWS V14.01,2013-01-19 07:17:00,
2013-01-18 23:20:00,29.6,29.6,30.37,North,360,0.0,2.0,100,0.00,,---,0.01,0.00,VWS V14.01,2013-01-19 07:20:00,
2013-01-18 23:22:00,29.4,29.4,30.37,North,351,1.0,3.0,100,0.00,,---,0.01,0.00,VWS V14.01,2013-01-19 07:22:00,
2013-01-18 23:25:00,29.4,29.4,30.37,North,351,0.0,3.0,100,0.00,,---,0.01,0.00,VWS V14.01,2013-01-19 07:25:00,
2013-01-18 23:27:00,29.4,29.4,30.37,North,360,0.0,2.0,100,0.00,,---,0.01,0.00,VWS V14.01,2013-01-19 07:27:00,
2013-01-18 23:30:00,29.4,29.4,30.37,North,360,1.0,2.0,100,0.00,,---,0.01,0.00,VWS V14.01,2013-01-19 07:30:00,
2013-01-18 23:32:00,29.3,29.3,30.38,North,360,0.0,2.0,100,0.00,,---,0.01,0.00,VWS V14.01,2013-01-19 07:32:00,
2013-01-18 23:35:00,29.4,29.4,30.38,North,360,0.0,2.0,100,0.00,,---,0.01,0.00,VWS V14.01,2013-01-19 07:35:00,
2013-01-18 23:37:00,29.3,29.3,30.37,North,355,1.0,2.0,100,0.00,,---,0.01,0.00,VWS V14.01,2013-01-19 07:37:00,
2013-01-18 23:40:00,29.3,29.3,30.37,North,355,2.0,2.0,100,0.00,,---,0.01,0.00,VWS V14.01,2013-01-19 07:40:00,
2013-01-18 23:42:00,29.3,29.3,30.37,North,355,0.0,2.0,100,0.00,,---,0.01,0.00,VWS V14.01,2013-01-19 07:42:00,
2013-01-18 23:45:00,29.3,29.3,30.38,NE,46,1.0,2.0,100,0.00,,---,0.01,0.00,VWS V14.01,2013-01-19 07:45:00,
2013-01-18 23:47:00,29.3,29.3,30.37,ENE,78,0.0,2.0,100,0.00,,---,0.01,0.00,VWS V14.01,2013-01-19 07:47:00,
2013-01-18 23:50:00,29.2,29.2,30.37,ENE,76,0.0,2.0,100,0.00,,---,0.01,0.00,VWS V14.01,2013-01-19 07:50:00,
2013-01-18 23:52:00,29.2,29.2,30.37,ENE,77,0.0,0.0,100,0.00,,---,0.01,0.00,VWS V14.01,2013-01-19 07:52:00,
2013-01-18 23:55:00,29.3,29.3,30.37,ENE,76,0.0,0.0,100,0.00,,---,0.01,0.00,VWS V14.01,2013-01-19 07:55:00,
2013-01-18 23:57:00,29.2,29.2,30.37,NNE,26,0.0,3.0,100,0.00,,---,0.01,0.00,VWS V14.01,2013-01-19 07:57:00,